| time (UTC) | temp C | wind direction | speed KPH | gust KPH | rain 1hr cm | rain 24hr cm | rain mn cm | humidity % | barometer mb |
| 20260905134303 | 21 | 352 | 1.6 | 6.4 | 0.00 | 0.13 | 0.00 | 90 | 1013.1 |
| 20260905134217 | 21 | 320 | 1.6 | 6.4 | 0.00 | 0.13 | 0.00 | 90 | 1013.3 |
| 20260905134203 | 21 | 293 | 1.6 | 6.4 | 0.00 | 0.13 | 0.00 | 89 | 1013.3 |
| 20260905134103 | 21 | 157 | 3.2 | 6.4 | 0.00 | 0.13 | 0.00 | 90 | 1013.1 |
| 20260905134017 | 21 | 49 | 1.6 | 4.8 | 0.00 | 0.13 | 0.00 | 89 | 1013.2 |
| 20260905133903 | 21 | 273 | 1.6 | 6.4 | 0.00 | 0.13 | 0.00 | 91 | 1013.2 |
| 20260905133703 | 21 | 324 | 1.6 | 8.0 | 0.00 | 0.13 | 0.00 | 92 | 1013.2 |
| 20260905133603 | 21 | 341 | 3.2 | 8.0 | 0.00 | 0.13 | 0.00 | 92 | 1013.4 |
| 20260905133503 | 21 | 296 | 4.8 | 8.0 | 0.00 | 0.13 | 0.00 | 91 | 1013.3 |
| 20260905133403 | 21 | 259 | 4.8 | 8.0 | 0.00 | 0.13 | 0.00 | 91 | 1013.2 |
| 20260905133303 | 21 | 16 | 3.2 | 8.0 | 0.00 | 0.13 | 0.00 | 91 | 1013.2 |
| 20260905133203 | 21 | 359 | 3.2 | 9.7 | 0.00 | 0.13 | 0.00 | 92 | 1013.2 |
| 20260905133103 | 21 | 223 | 4.8 | 9.7 | 0.00 | 0.13 | 0.00 | 93 | 1013.0 |
| 20260905133003 | 21 | 234 | 4.8 | 9.7 | 0.00 | 0.13 | 0.00 | 93 | 1013.5 |
| 20260905132903 | 21 | 272 | 4.8 | 12.9 | 0.00 | 0.13 | 0.00 | 93 | 1013.2 |
| 20260905132803 | 20 | 336 | 4.8 | 12.9 | 0.00 | 0.13 | 0.00 | 93 | 1013.3 |
| 20260905132703 | 20 | 290 | 4.8 | 12.9 | 0.00 | 0.13 | 0.00 | 94 | 1013.3 |
| 20260905132603 | 20 | 310 | 6.4 | 12.9 | 0.00 | 0.13 | 0.00 | 93 | 1013.3 |
| 20260905132503 | 20 | 330 | 4.8 | 11.3 | 0.00 | 0.13 | 0.00 | 93 | 1013.2 |
| 20260905132403 | 20 | 297 | 3.2 | 8.0 | 0.00 | 0.13 | 0.00 | 94 | 1013.4 |
| 20260905132317 | 20 | 284 | 4.8 | 8.0 | 0.00 | 0.13 | 0.00 | 94 | 1013.3 |
| 20260905132305 | 20 | 295 | 3.2 | 8.0 | 0.00 | 0.13 | 0.00 | 94 | 1013.3 |
| 20260905132203 | 20 | 306 | 3.2 | 9.7 | 0.00 | 0.13 | 0.00 | 94 | 1013.5 |
| 20260905132016 | 20 | 260 | 1.6 | 12.9 | 0.00 | 0.13 | 0.00 | 95 | 1013.6 |
| 20260905132003 | 20 | 266 | 3.2 | 12.9 | 0.00 | 0.13 | 0.00 | 95 | 1013.6 |
| 20260905131903 | 20 | 243 | 3.2 | 12.9 | 0.00 | 0.13 | 0.00 | 95 | 1013.2 |
| 20260905131703 | 20 | 282 | 4.8 | 12.9 | 0.00 | 0.13 | 0.00 | 95 | 1013.5 |
| 20260905131603 | 20 | 266 | 3.2 | 6.4 | 0.00 | 0.13 | 0.00 | 95 | 1013.2 |
| 20260905131503 | 20 | 292 | 4.8 | 6.4 | 0.00 | 0.13 | 0.00 | 95 | 1013.4 |
| 20260905131403 | 20 | 303 | 3.2 | 6.4 | 0.00 | 0.13 | 0.00 | 96 | 1013.4 |
| 20260905131303 | 20 | 279 | 1.6 | 4.8 | 0.00 | 0.13 | 0.00 | 96 | 1013.4 |
| 20260905131203 | 20 | 231 | 1.6 | 9.7 | 0.00 | 0.13 | 0.00 | 96 | 1013.2 |
| 20260905131103 | 20 | 171 | 0.0 | 9.7 | 0.00 | 0.13 | 0.00 | 96 | 1013.3 |
| 20260905131003 | 20 | 100 | 0.0 | 9.7 | 0.00 | 0.13 | 0.00 | 96 | 1013.1 |
| 20260905130903 | 20 | 56 | 3.2 | 9.7 | 0.00 | 0.13 | 0.00 | 96 | 1013.2 |
| 20260905130803 | 20 | 4 | 3.2 | 9.7 | 0.00 | 0.13 | 0.00 | 96 | 1013.4 |
| 20260905130716 | 20 | 347 | 1.6 | 9.7 | 0.00 | 0.13 | 0.00 | 96 | 1013.2 |
| 20260905130703 | 20 | 73 | 1.6 | 6.4 | 0.00 | 0.13 | 0.00 | 96 | 1013.2 |
| 20260905130603 | 20 | 85 | 1.6 | 6.4 | 0.00 | 0.13 | 0.00 | 96 | 1013.3 |
| 20260905130403 | 20 | 309 | 3.2 | 6.4 | 0.00 | 0.13 | 0.00 | 96 | 1013.2 |
| 20260905130316 | 20 | 319 | 3.2 | 8.0 | 0.00 | 0.13 | 0.00 | 96 | 1013.3 |
| 20260905130303 | 20 | 310 | 3.2 | 8.0 | 0.00 | 0.13 | 0.00 | 96 | 1013.3 |
| 20260905130203 | 20 | 283 | 3.2 | 8.0 | 0.00 | 0.13 | 0.00 | 96 | 1013.4 |
| 20260905130003 | 20 | 284 | 4.8 | 8.0 | 0.00 | 0.13 | 0.00 | 96 | 1013.4 |
| 20260905125903 | 20 | 275 | 3.2 | 6.4 | 0.00 | 0.13 | 0.00 | 97 | 1013.5 |
| 20260905125803 | 20 | 244 | 1.6 | 6.4 | 0.00 | 0.13 | 0.00 | 97 | 1013.4 |
| 20260905125703 | 20 | 212 | 1.6 | 6.4 | 0.00 | 0.13 | 0.00 | 97 | 1013.3 |
| 20260905125603 | 20 | 291 | 1.6 | 6.4 | 0.00 | 0.13 | 0.00 | 97 | 1013.5 |
| 20260905125503 | 20 | 298 | 3.2 | 6.4 | 0.00 | 0.13 | 0.00 | 97 | 1013.4 |
| 20260905125403 | 20 | 293 | 3.2 | 6.4 | 0.00 | 0.13 | 0.00 | 97 | 1013.2 |
| 20260905125306 | 20 | 292 | 3.2 | 6.4 | 0.00 | 0.13 | 0.00 | 97 | 1013.4 |
| 20260905125103 | 20 | 284 | 3.2 | 6.4 | 0.00 | 0.13 | 0.00 | 97 | 1013.3 |
| 20260905125003 | 20 | 273 | 1.6 | 6.4 | 0.00 | 0.13 | 0.00 | 100 | 1013.3 |
| 20260905124903 | 20 | 280 | 0.0 | 6.4 | 0.00 | 0.13 | 0.00 | 100 | 1013.5 |
| 20260905124803 | 20 | 199 | 0.0 | 4.8 | 0.00 | 0.13 | 0.00 | 100 | 1013.2 |
| 20260905124703 | 20 | 208 | 0.0 | 8.0 | 0.00 | 0.13 | 0.00 | 100 | 1013.3 |
| 20260905124603 | 20 | 337 | 1.6 | 9.7 | 0.00 | 0.13 | 0.00 | 100 | 1013.3 |
| 20260905124503 | 20 | 357 | 1.6 | 9.7 | 0.00 | 0.13 | 0.00 | 100 | 1013.2 |
| 20260905124403 | 20 | 300 | 1.6 | 9.7 | 0.00 | 0.13 | 0.00 | 100 | 1013.3 |
| 20260905124303 | 19 | 292 | 3.2 | 9.7 | 0.00 | 0.13 | 0.00 | 100 | 1013.4 |
| 20260905124203 | 19 | 341 | 1.6 | 8.0 | 0.00 | 0.13 | 0.00 | 100 | 1013.3 |
| 20260905124103 | 19 | 294 | 1.6 | 8.0 | 0.00 | 0.13 | 0.00 | 100 | 1013.2 |
| 20260905124003 | 19 | 319 | 3.2 | 9.7 | 0.00 | 0.13 | 0.00 | 100 | 1013.3 |
| 20260905123903 | 19 | 295 | 4.8 | 9.7 | 0.00 | 0.13 | 0.00 | 100 | 1013.2 |
| 20260905123803 | 19 | 311 | 3.2 | 9.7 | 0.00 | 0.13 | 0.00 | 100 | 1013.2 |
| 20260905123703 | 19 | 350 | 3.2 | 9.7 | 0.00 | 0.13 | 0.00 | 100 | 1013.3 |
| 20260905123603 | 19 | 292 | 4.8 | 9.7 | 0.00 | 0.13 | 0.00 | 100 | 1013.2 |
| 20260905123403 | 19 | 289 | 3.2 | 9.7 | 0.00 | 0.13 | 0.00 | 100 | 1013.5 |
| 20260905123303 | 19 | 262 | 4.8 | 9.7 | 0.00 | 0.13 | 0.00 | 100 | 1013.2 |
| 20260905123217 | 19 | 287 | 6.4 | 9.7 | 0.00 | 0.13 | 0.00 | 100 | 1013.3 |
| 20260905123203 | 19 | 286 | 6.4 | 9.7 | 0.00 | 0.13 | 0.00 | 100 | 1013.3 |
| 20260905123103 | 19 | 291 | 4.8 | 8.0 | 0.00 | 0.13 | 0.00 | 100 | 1013.2 |
| 20260905122903 | 19 | 223 | 1.6 | 4.8 | 0.00 | 0.13 | 0.00 | 100 | 1013.4 |
| 20260905122803 | 19 | 221 | 1.6 | 4.8 | 0.00 | 0.13 | 0.00 | 100 | 1013.2 |
| 20260905122720 | 19 | 201 | 1.6 | 4.8 | 0.00 | 0.13 | 0.00 | 100 | 1013.4 |
| 20260905122703 | 19 | 172 | 1.6 | 4.8 | 0.00 | 0.13 | 0.00 | 100 | 1013.4 |
| 20260905122603 | 19 | 187 | 1.6 | 8.0 | 0.00 | 0.13 | 0.00 | 100 | 1013.5 |
| 20260905122403 | 19 | 245 | 1.6 | 8.0 | 0.00 | 0.13 | 0.00 | 100 | 1013.4 |
| 20260905122306 | 19 | 271 | 3.2 | 8.0 | 0.00 | 0.13 | 0.00 | 100 | 1013.4 |
| 20260905122203 | 19 | 314 | 3.2 | 8.0 | 0.00 | 0.13 | 0.00 | 100 | 1013.5 |
| 20260905122118 | 19 | 308 | 3.2 | 8.0 | 0.00 | 0.13 | 0.00 | 100 | 1013.6 |
| 20260905122103 | 19 | 301 | 4.8 | 8.0 | 0.00 | 0.13 | 0.00 | 100 | 1013.6 |
| 20260905122003 | 19 | 282 | 4.8 | 8.0 | 0.00 | 0.13 | 0.00 | 100 | 1013.4 |
| 20260905121817 | 19 | 307 | 4.8 | 8.0 | 0.00 | 0.13 | 0.00 | 100 | 1013.4 |
| 20260905121703 | 19 | 313 | 3.2 | 8.0 | 0.00 | 0.13 | 0.00 | 100 | 1013.4 |
| 20260905121517 | 19 | 289 | 3.2 | 4.8 | 0.00 | 0.13 | 0.00 | 100 | 1013.2 |
| 20260905121503 | 19 | 293 | 1.6 | 4.8 | 0.00 | 0.13 | 0.00 | 100 | 1013.2 |
| 20260905121403 | 19 | 252 | 1.6 | 4.8 | 0.00 | 0.13 | 0.00 | 100 | 1013.6 |
| 20260905121203 | 19 | 221 | 3.2 | 6.4 | 0.00 | 0.13 | 0.00 | 100 | 1013.4 |
| 20260905121103 | 19 | 241 | 3.2 | 6.4 | 0.00 | 0.13 | 0.00 | 100 | 1013.4 |
| 20260905121003 | 19 | 226 | 1.6 | 6.4 | 0.00 | 0.13 | 0.00 | 100 | 1013.3 |
| 20260905120903 | 19 | 248 | 1.6 | 6.4 | 0.00 | 0.13 | 0.00 | 100 | 1013.3 |
| 20260905120803 | 19 | 214 | 1.6 | 6.4 | 0.00 | 0.13 | 0.00 | 100 | 1013.4 |
| 20260905120703 | 19 | 197 | 0.0 | 4.8 | 0.00 | 0.13 | 0.00 | 100 | 1013.4 |
| 20260905120503 | 19 | 291 | 0.0 | 6.4 | 0.00 | 0.13 | 0.00 | 100 | 1013.2 |
| 20260905120403 | 19 | 338 | 1.6 | 6.4 | 0.00 | 0.13 | 0.00 | 100 | 1013.3 |
| 20260905120203 | 19 | 204 | 1.6 | 6.4 | 0.00 | 0.13 | 0.00 | 100 | 1013.5 |
| 20260905120003 | 19 | 327 | 3.2 | 8.0 | 0.00 | 0.13 | 0.00 | 100 | 1013.3 |
| 20260905115903 | 19 | 339 | 3.2 | 8.0 | 0.00 | 0.13 | 0.00 | 100 | 1013.3 |
| 20260905115803 | 19 | 280 | 3.2 | 8.0 | 0.00 | 0.13 | 0.00 | 100 | 1013.4 |
| 20260905115703 | 19 | 290 | 4.8 | 8.0 | 0.00 | 0.13 | 0.00 | 100 | 1013.2 |
| 20260905115603 | 19 | 324 | 3.2 | 8.0 | 0.00 | 0.13 | 0.00 | 100 | 1013.3 |
| 20260905115503 | 19 | 305 | 3.2 | 8.0 | 0.00 | 0.13 | 0.00 | 100 | 1013.1 |
| 20260905115403 | 19 | 271 | 3.2 | 8.0 | 0.00 | 0.13 | 0.00 | 100 | 1013.1 |
| 20260905115306 | 19 | 274 | 3.2 | 11.3 | 0.00 | 0.13 | 0.00 | 100 | 1013.1 |
| 20260905115203 | 19 | 240 | 3.2 | 11.3 | 0.00 | 0.13 | 0.00 | 100 | 1013.3 |
| 20260905115103 | 19 | 271 | 6.4 | 11.3 | 0.00 | 0.13 | 0.00 | 100 | 1013.0 |
| 20260905115018 | 19 | 288 | 6.4 | 11.3 | 0.00 | 0.13 | 0.00 | 100 | 1013.3 |
| 20260905115003 | 19 | 284 | 6.4 | 11.3 | 0.00 | 0.13 | 0.00 | 100 | 1013.3 |
| 20260905114903 | 19 | 279 | 6.4 | 11.3 | 0.00 | 0.13 | 0.00 | 100 | 1013.2 |
| 20260905114703 | 19 | 291 | 4.8 | 8.0 | 0.00 | 0.13 | 0.00 | 100 | 1013.2 |
| 20260905114603 | 19 | 279 | 3.2 | 6.4 | 0.00 | 0.13 | 0.00 | 100 | 1013.0 |
| 20260905114503 | 19 | 246 | 1.6 | 6.4 | 0.00 | 0.13 | 0.00 | 100 | 1013.1 |
| 20260905114417 | 19 | 286 | 1.6 | 4.8 | 0.00 | 0.13 | 0.00 | 100 | 1013.1 |
| 20260905114403 | 19 | 298 | 1.6 | 4.8 | 0.00 | 0.13 | 0.00 | 100 | 1013.1 |
| 20260905114303 | 19 | 247 | 1.6 | 4.8 | 0.00 | 0.13 | 0.00 | 100 | 1013.1 |
| 20260905114103 | 19 | 283 | 1.6 | 4.8 | 0.00 | 0.13 | 0.00 | 100 | 1013.0 |
| 20260905114003 | 19 | 240 | 1.6 | 6.4 | 0.00 | 0.13 | 0.00 | 100 | 1012.9 |
| 20260905113903 | 19 | 271 | 1.6 | 6.4 | 0.00 | 0.13 | 0.00 | 100 | 1012.9 |
| 20260905113803 | 19 | 269 | 3.2 | 6.4 | 0.00 | 0.13 | 0.00 | 100 | 1013.2 |
| 20260905113703 | 19 | 245 | 3.2 | 6.4 | 0.00 | 0.13 | 0.00 | 100 | 1012.9 |
| 20260905113603 | 19 | 220 | 1.6 | 6.4 | 0.00 | 0.13 | 0.00 | 100 | 1013.0 |
| 20260905113503 | 19 | 233 | 1.6 | 6.4 | 0.00 | 0.13 | 0.00 | 100 | 1013.0 |
| 20260905113403 | 19 | 255 | 3.2 | 8.0 | 0.00 | 0.13 | 0.00 | 100 | 1012.9 |
| 20260905113318 | 19 | 273 | 1.6 | 8.0 | 0.00 | 0.13 | 0.00 | 100 | 1012.9 |
| 20260905113303 | 19 | 260 | 3.2 | 8.0 | 0.00 | 0.13 | 0.00 | 100 | 1012.9 |
| 20260905113217 | 19 | 226 | 1.6 | 8.0 | 0.00 | 0.13 | 0.00 | 100 | 1012.7 |
| 20260905113203 | 19 | 229 | 1.6 | 8.0 | 0.00 | 0.13 | 0.00 | 100 | 1012.7 |
| 20260905112903 | 19 | 239 | 3.2 | 8.0 | 0.00 | 0.13 | 0.00 | 100 | 1012.7 |
| 20260905112803 | 19 | 261 | 3.2 | 8.0 | 0.00 | 0.13 | 0.00 | 100 | 1013.0 |
| 20260905112703 | 19 | 230 | 3.2 | 8.0 | 0.00 | 0.13 | 0.00 | 100 | 1013.0 |
| 20260905112603 | 19 | 268 | 3.2 | 8.0 | 0.00 | 0.13 | 0.00 | 100 | 1012.6 |
| 20260905112503 | 19 | 285 | 3.2 | 8.0 | 0.00 | 0.13 | 0.00 | 100 | 1012.9 |
| 20260905112403 | 19 | 222 | 3.2 | 8.0 | 0.00 | 0.13 | 0.00 | 100 | 1012.6 |
| 20260905112305 | 19 | 282 | 3.2 | 8.0 | 0.00 | 0.13 | 0.00 | 100 | 1012.7 |
| 20260905112203 | 19 | 244 | 4.8 | 8.0 | 0.00 | 0.13 | 0.00 | 100 | 1012.6 |
| 20260905112103 | 19 | 273 | 3.2 | 8.0 | 0.00 | 0.13 | 0.00 | 100 | 1012.7 |
| 20260905112003 | 19 | 278 | 4.8 | 8.0 | 0.00 | 0.13 | 0.00 | 100 | 1012.9 |
| 20260905111903 | 19 | 282 | 4.8 | 8.0 | 0.00 | 0.13 | 0.00 | 100 | 1012.9 |
| 20260905111803 | 19 | 255 | 3.2 | 6.4 | 0.00 | 0.13 | 0.00 | 100 | 1012.9 |
| 20260905111717 | 19 | 253 | 0.0 | 3.2 | 0.00 | 0.13 | 0.00 | 100 | 1012.6 |
| 20260905111703 | 19 | 249 | 0.0 | 3.2 | 0.00 | 0.13 | 0.00 | 100 | 1012.6 |
| 20260905111603 | 19 | 288 | 0.0 | 4.8 | 0.00 | 0.13 | 0.00 | 100 | 1012.9 |
| 20260905111403 | 19 | 250 | 1.6 | 4.8 | 0.00 | 0.13 | 0.00 | 100 | 1012.6 |
| 20260905111303 | 19 | 293 | 1.6 | 4.8 | 0.00 | 0.13 | 0.00 | 100 | 1012.9 |
| 20260905111203 | 19 | 316 | 1.6 | 4.8 | 0.00 | 0.13 | 0.00 | 100 | 1012.9 |
| 20260905111103 | 19 | 120 | 0.0 | 4.8 | 0.00 | 0.13 | 0.00 | 100 | 1012.9 |
| 20260905111003 | 19 | 221 | 0.0 | 4.8 | 0.00 | 0.13 | 0.00 | 100 | 1013.1 |
| 20260905110903 | 19 | 246 | 0.0 | 4.8 | 0.00 | 0.13 | 0.00 | 100 | 1012.9 |
| 20260905110803 | 19 | 326 | 0.0 | 4.8 | 0.00 | 0.13 | 0.00 | 100 | 1013.0 |
| 20260905110703 | 19 | 325 | 0.0 | 4.8 | 0.00 | 0.13 | 0.00 | 100 | 1012.7 |
| 20260905110603 | 19 | 290 | 0.0 | 6.4 | 0.00 | 0.13 | 0.00 | 100 | 1013.0 |
| 20260905110517 | 19 | 284 | 0.0 | 8.0 | 0.00 | 0.13 | 0.00 | 100 | 1012.7 |
| 20260905110503 | 19 | 320 | 0.0 | 8.0 | 0.00 | 0.13 | 0.00 | 100 | 1012.7 |
| 20260905110403 | 19 | 277 | 1.6 | 8.0 | 0.00 | 0.13 | 0.00 | 100 | 1012.9 |
| 20260905110203 | 19 | 278 | 3.2 | 9.7 | 0.00 | 0.13 | 0.00 | 100 | 1013.0 |
| 20260905110003 | 19 | 297 | 3.2 | 9.7 | 0.00 | 0.13 | 0.00 | 100 | 1013.1 |
| 20260905105903 | 19 | 246 | 3.2 | 9.7 | 0.00 | 0.13 | 0.00 | 100 | 1013.0 |
| 20260905105803 | 19 | 316 | 4.8 | 9.7 | 0.00 | 0.13 | 0.00 | 100 | 1013.0 |
| 20260905105603 | 19 | 209 | 1.6 | 11.3 | 0.00 | 0.13 | 0.00 | 100 | 1013.0 |
| 20260905105503 | 19 | 227 | 1.6 | 11.3 | 0.00 | 0.13 | 0.00 | 100 | 1012.9 |
| 20260905105403 | 19 | 343 | 1.6 | 11.3 | 0.00 | 0.13 | 0.00 | 100 | 1012.7 |
| 20260905105318 | 19 | 262 | 3.2 | 11.3 | 0.00 | 0.13 | 0.00 | 100 | 1013.1 |
| 20260905105306 | 19 | 36 | 4.8 | 11.3 | 0.00 | 0.13 | 0.00 | 100 | 1013.1 |
| 20260905105203 | 19 | 48 | 4.8 | 11.3 | 0.00 | 0.13 | 0.00 | 100 | 1012.7 |
| 20260905105003 | 19 | 238 | 3.2 | 8.0 | 0.00 | 0.13 | 0.00 | 100 | 1013.0 |
| 20260905104903 | 19 | 318 | 3.2 | 8.0 | 0.00 | 0.13 | 0.00 | 100 | 1013.0 |
| 20260905104803 | 19 | 287 | 1.6 | 8.0 | 0.00 | 0.13 | 0.00 | 100 | 1013.1 |
| 20260905104703 | 19 | 284 | 1.6 | 4.8 | 0.00 | 0.13 | 0.00 | 100 | 1012.7 |
| 20260905104618 | 19 | 224 | 1.6 | 4.8 | 0.00 | 0.13 | 0.00 | 100 | 1012.9 |
| 20260905104603 | 19 | 211 | 1.6 | 4.8 | 0.00 | 0.13 | 0.00 | 100 | 1012.9 |
| 20260905104505 | 19 | 318 | 1.6 | 4.8 | 0.00 | 0.13 | 0.00 | 100 | 1012.9 |
| 20260905104303 | 19 | 355 | 1.6 | 4.8 | 0.00 | 0.13 | 0.00 | 100 | 1012.9 |
| 20260905104203 | 19 | 308 | 1.6 | 6.4 | 0.00 | 0.13 | 0.00 | 100 | 1012.9 |
| 20260905104117 | 19 | 227 | 1.6 | 6.4 | 0.00 | 0.13 | 0.00 | 100 | 1012.7 |
| 20260905104103 | 19 | 217 | 1.6 | 6.4 | 0.00 | 0.13 | 0.00 | 100 | 1012.7 |
| 20260905104003 | 19 | 24 | 1.6 | 6.4 | 0.00 | 0.13 | 0.00 | 100 | 1012.9 |
| 20260905103918 | 19 | 6 | 3.2 | 6.4 | 0.00 | 0.13 | 0.00 | 100 | 1012.7 |
| 20260905103803 | 19 | 356 | 1.6 | 6.4 | 0.00 | 0.13 | 0.00 | 100 | 1012.7 |
| 20260905103603 | 19 | 37 | 1.6 | 8.0 | 0.00 | 0.13 | 0.00 | 100 | 1012.7 |
| 20260905103516 | 19 | 14 | 1.6 | 8.0 | 0.00 | 0.13 | 0.00 | 100 | 1012.7 |
| 20260905103503 | 19 | 353 | 1.6 | 8.0 | 0.00 | 0.13 | 0.00 | 100 | 1012.7 |
| 20260905103403 | 19 | 348 | 3.2 | 8.0 | 0.00 | 0.13 | 0.00 | 100 | 1012.7 |
| 20260905103203 | 19 | 284 | 1.6 | 8.0 | 0.00 | 0.13 | 0.00 | 100 | 1012.9 |
| 20260905103103 | 19 | 230 | 1.6 | 8.0 | 0.00 | 0.13 | 0.00 | 100 | 1012.7 |
| 20260905103003 | 19 | 206 | 1.6 | 8.0 | 0.00 | 0.13 | 0.00 | 100 | 1012.9 |
| 20260905102903 | 19 | 219 | 3.2 | 8.0 | 0.00 | 0.13 | 0.00 | 100 | 1012.9 |
| 20260905102803 | 19 | 340 | 3.2 | 12.9 | 0.00 | 0.13 | 0.00 | 100 | 1012.7 |
| 20260905102603 | 19 | 236 | 4.8 | 12.9 | 0.00 | 0.13 | 0.00 | 100 | 1012.9 |
| 20260905102503 | 19 | 316 | 6.4 | 12.9 | 0.00 | 0.13 | 0.00 | 100 | 1012.7 |
| 20260905102403 | 19 | 277 | 6.4 | 11.3 | 0.00 | 0.13 | 0.00 | 100 | 1012.7 |
| 20260905102306 | 20 | 2 | 4.8 | 11.3 | 0.00 | 0.13 | 0.00 | 100 | 1012.6 |
| 20260905102203 | 20 | 291 | 1.6 | 6.4 | 0.00 | 0.13 | 0.00 | 100 | 1012.6 |
| 20260905102103 | 20 | 353 | 1.6 | 6.4 | 0.00 | 0.13 | 0.00 | 100 | 1012.6 |
| 20260905102003 | 20 | 8 | 1.6 | 6.4 | 0.00 | 0.13 | 0.00 | 100 | 1012.5 |
| 20260905101903 | 20 | 231 | 0.0 | 3.2 | 0.00 | 0.13 | 0.00 | 100 | 1012.5 |
| 20260905101817 | 20 | 123 | 0.0 | 6.4 | 0.00 | 0.13 | 0.00 | 100 | 1012.5 |
| 20260905101803 | 20 | 129 | 0.0 | 6.4 | 0.00 | 0.13 | 0.00 | 100 | 1012.5 |
| 20260905101703 | 20 | 215 | 0.0 | 8.0 | 0.00 | 0.13 | 0.00 | 100 | 1012.4 |
| 20260905101503 | 20 | 245 | 1.6 | 8.0 | 0.00 | 0.13 | 0.00 | 100 | 1012.4 |
| 20260905101417 | 20 | 246 | 3.2 | 8.0 | 0.00 | 0.13 | 0.00 | 100 | 1012.4 |
| 20260905101403 | 20 | 269 | 3.2 | 8.0 | 0.00 | 0.13 | 0.00 | 100 | 1012.4 |
| 20260905101303 | 20 | 325 | 4.8 | 9.7 | 0.00 | 0.13 | 0.00 | 100 | 1012.4 |
| 20260905101103 | 20 | 318 | 3.2 | 9.7 | 0.00 | 0.13 | 0.00 | 100 | 1012.5 |
| 20260905101003 | 20 | 318 | 4.8 | 9.7 | 0.00 | 0.13 | 0.00 | 100 | 1012.4 |
| 20260905100903 | 20 | 321 | 3.2 | 9.7 | 0.00 | 0.13 | 0.00 | 100 | 1012.3 |
| 20260905100803 | 20 | 271 | 1.6 | 8.0 | 0.00 | 0.13 | 0.00 | 100 | 1012.3 |
| 20260905100703 | 20 | 266 | 3.2 | 8.0 | 0.00 | 0.13 | 0.00 | 100 | 1012.2 |
| 20260905100603 | 20 | 270 | 3.2 | 8.0 | 0.00 | 0.13 | 0.00 | 100 | 1012.3 |
| 20260905100503 | 20 | 336 | 3.2 | 8.0 | 0.00 | 0.13 | 0.00 | 100 | 1012.3 |
| 20260905100403 | 20 | 328 | 3.2 | 6.4 | 0.00 | 0.13 | 0.00 | 100 | 1012.1 |
| 20260905100317 | 20 | 337 | 1.6 | 6.4 | 0.00 | 0.13 | 0.00 | 100 | 1012.1 |
| 20260905100303 | 20 | 316 | 1.6 | 6.4 | 0.00 | 0.13 | 0.00 | 100 | 1012.1 |
| 20260905100218 | 20 | 305 | 1.6 | 6.4 | 0.00 | 0.13 | 0.00 | 100 | 1012.1 |
| 20260905100203 | 20 | 307 | 1.6 | 6.4 | 0.00 | 0.13 | 0.00 | 100 | 1012.1 |
| 20260905100017 | 20 | 246 | 1.6 | 4.8 | 0.00 | 0.13 | 0.00 | 100 | 1012.0 |
| 20260905095903 | 20 | 190 | 3.2 | 8.0 | 0.00 | 0.13 | 0.00 | 100 | 1012.0 |
| 20260905095703 | 20 | 230 | 1.6 | 8.0 | 0.00 | 0.13 | 0.00 | 100 | 1012.1 |
| 20260905095603 | 20 | 272 | 3.2 | 8.0 | 0.00 | 0.13 | 0.00 | 100 | 1012.2 |
| 20260905095503 | 20 | 304 | 3.2 | 8.0 | 0.00 | 0.13 | 0.00 | 100 | 1012.0 |
| 20260905095403 | 20 | 228 | 1.6 | 8.0 | 0.00 | 0.13 | 0.00 | 100 | 1012.1 |
| 20260905095305 | 20 | 238 | 1.6 | 8.0 | 0.00 | 0.13 | 0.00 | 100 | 1011.7 |
| 20260905095203 | 20 | 303 | 1.6 | 8.0 | 0.00 | 0.13 | 0.00 | 100 | 1012.0 |
| 20260905095103 | 20 | 310 | 1.6 | 8.0 | 0.00 | 0.13 | 0.00 | 100 | 1012.0 |
| 20260905095003 | 20 | 273 | 1.6 | 8.0 | 0.00 | 0.13 | 0.00 | 100 | 1011.8 |
| 20260905094903 | 20 | 179 | 1.6 | 9.7 | 0.00 | 0.13 | 0.00 | 100 | 1012.0 |
| 20260905094803 | 20 | 76 | 1.6 | 9.7 | 0.00 | 0.13 | 0.00 | 100 | 1012.0 |
| 20260905094703 | 20 | 250 | 1.6 | 9.7 | 0.00 | 0.13 | 0.00 | 100 | 1011.9 |
| 20260905094603 | 20 | 334 | 3.2 | 9.7 | 0.00 | 0.13 | 0.00 | 100 | 1011.9 |
| 20260905094503 | 20 | 6 | 3.2 | 11.3 | 0.00 | 0.13 | 0.00 | 100 | 1011.7 |
| 20260905094403 | 20 | 317 | 1.6 | 11.3 | 0.00 | 0.13 | 0.00 | 100 | 1012.0 |
| 20260905094303 | 20 | 343 | 1.6 | 11.3 | 0.00 | 0.13 | 0.00 | 100 | 1012.0 |
| 20260905094203 | 20 | 337 | 3.2 | 11.3 | 0.00 | 0.13 | 0.00 | 100 | 1011.8 |
| 20260905094117 | 20 | 22 | 1.6 | 11.3 | 0.00 | 0.13 | 0.00 | 100 | 1011.7 |
| 20260905094103 | 20 | 14 | 1.6 | 11.3 | 0.00 | 0.13 | 0.00 | 100 | 1011.7 |
| 20260905094003 | 20 | 5 | 1.6 | 8.0 | 0.00 | 0.13 | 0.00 | 100 | 1011.8 |
| 20260905093918 | 20 | 59 | 1.6 | 6.4 | 0.00 | 0.13 | 0.00 | 100 | 1011.8 |
| 20260905093803 | 20 | 42 | 1.6 | 6.4 | 0.00 | 0.13 | 0.00 | 100 | 1012.0 |
| 20260905093717 | 20 | 229 | 0.0 | 4.8 | 0.00 | 0.13 | 0.00 | 100 | 1011.9 |
| 20260905093603 | 20 | 234 | 1.6 | 4.8 | 0.00 | 0.13 | 0.00 | 100 | 1012.0 |
| 20260905093518 | 20 | 247 | 1.6 | 4.8 | 0.00 | 0.13 | 0.00 | 100 | 1012.0 |
| 20260905093403 | 20 | 148 | 0.0 | 4.8 | 0.00 | 0.13 | 0.00 | 100 | 1012.0 |
| 20260905093317 | 20 | 349 | 0.0 | 4.8 | 0.00 | 0.13 | 0.00 | 100 | 1011.8 |
| 20260905093203 | 20 | 123 | 0.0 | 3.2 | 0.00 | 0.13 | 0.00 | 100 | 1012.1 |
| 20260905093003 | 20 | 218 | 0.0 | 3.2 | 0.00 | 0.13 | 0.00 | 100 | 1012.2 |
| 20260905092903 | 20 | 333 | 0.0 | 3.2 | 0.00 | 0.13 | 0.00 | 100 | 1012.2 |
| 20260905092803 | 20 | 301 | 0.0 | 4.8 | 0.00 | 0.13 | 0.00 | 100 | 1012.3 |
| 20260905092703 | 20 | 223 | 0.0 | 4.8 | 0.00 | 0.13 | 0.00 | 100 | 1012.2 |
| 20260905092603 | 20 | 213 | 0.0 | 4.8 | 0.00 | 0.13 | 0.00 | 100 | 1012.2 |
| 20260905092503 | 20 | 265 | 1.6 | 4.8 | 0.00 | 0.13 | 0.00 | 100 | 1012.0 |
| 20260905092403 | 20 | 272 | 0.0 | 4.8 | 0.00 | 0.13 | 0.00 | 100 | 1012.0 |
| 20260905092306 | 20 | 242 | 0.0 | 3.2 | 0.00 | 0.13 | 0.00 | 100 | 1012.1 |
| 20260905092203 | 20 | 234 | 0.0 | 4.8 | 0.00 | 0.13 | 0.00 | 100 | 1012.1 |
| 20260905092118 | 20 | 340 | 0.0 | 4.8 | 0.00 | 0.13 | 0.00 | 100 | 1012.1 |
| 20260905092103 | 20 | 354 | 0.0 | 4.8 | 0.00 | 0.13 | 0.00 | 100 | 1012.1 |
| 20260905092003 | 20 | 344 | 0.0 | 4.8 | 0.00 | 0.13 | 0.00 | 100 | 1012.0 |
| 20260905091803 | 20 | 341 | 0.0 | 4.8 | 0.00 | 0.13 | 0.00 | 100 | 1012.1 |
| 20260905091703 | 20 | 270 | 0.0 | 4.8 | 0.00 | 0.13 | 0.00 | 100 | 1012.0 |
| 20260905091603 | 20 | 270 | 1.6 | 4.8 | 0.00 | 0.13 | 0.00 | 100 | 1012.1 |
| 20260905091403 | 20 | 241 | 1.6 | 4.8 | 0.00 | 0.13 | 0.00 | 100 | 1012.2 |
| 20260905091303 | 20 | 237 | 0.0 | 4.8 | 0.00 | 0.13 | 0.00 | 100 | 1012.1 |
| 20260905091203 | 20 | 222 | 1.6 | 4.8 | 0.00 | 0.13 | 0.00 | 100 | 1012.2 |
| 20260905091116 | 20 | 214 | 1.6 | 6.4 | 0.00 | 0.13 | 0.00 | 100 | 1012.0 |
| 20260905091103 | 20 | 208 | 1.6 | 6.4 | 0.00 | 0.13 | 0.00 | 100 | 1012.0 |
| 20260905091003 | 20 | 166 | 1.6 | 6.4 | 0.00 | 0.13 | 0.00 | 100 | 1012.1 |
| 20260905090818 | 20 | 243 | 1.6 | 6.4 | 0.00 | 0.13 | 0.00 | 100 | 1012.0 |
| 20260905090803 | 20 | 294 | 1.6 | 6.4 | 0.00 | 0.13 | 0.00 | 100 | 1012.0 |
| 20260905090703 | 20 | 246 | 0.0 | 6.4 | 0.00 | 0.13 | 0.00 | 100 | 1012.1 |
| 20260905090503 | 20 | 337 | 1.6 | 4.8 | 0.00 | 0.13 | 0.00 | 100 | 1011.9 |
| 20260905090405 | 20 | 331 | 1.6 | 4.8 | 0.00 | 0.13 | 0.00 | 100 | 1012.0 |
| 20260905090317 | 20 | 327 | 1.6 | 4.8 | 0.00 | 0.13 | 0.00 | 100 | 1011.9 |
| 20260905090303 | 20 | 320 | 1.6 | 4.8 | 0.00 | 0.13 | 0.00 | 100 | 1011.9 |
| 20260905090203 | 20 | 347 | 0.0 | 6.4 | 0.00 | 0.13 | 0.00 | 100 | 1011.9 |
| 20260905090116 | 20 | 298 | 0.0 | 6.4 | 0.00 | 0.13 | 0.00 | 100 | 1011.9 |
| 20260905090003 | 20 | 298 | 1.6 | 8.0 | 0.00 | 0.13 | 0.00 | 100 | 1011.9 |
| 20260905085803 | 20 | 265 | 4.8 | 8.0 | 0.00 | 0.13 | 0.00 | 100 | 1012.1 |
| 20260905085703 | 20 | 284 | 4.8 | 8.0 | 0.00 | 0.13 | 0.00 | 100 | 1012.0 |
| 20260905085617 | 20 | 286 | 4.8 | 8.0 | 0.00 | 0.13 | 0.00 | 100 | 1012.1 |
| 20260905085603 | 20 | 288 | 4.8 | 8.0 | 0.00 | 0.13 | 0.00 | 100 | 1012.1 |
| 20260905085503 | 20 | 297 | 4.8 | 6.4 | 0.00 | 0.13 | 0.00 | 100 | 1012.1 |
| 20260905085305 | 20 | 268 | 3.2 | 6.4 | 0.00 | 0.13 | 0.00 | 100 | 1012.1 |
| 20260905085218 | 20 | 275 | 1.6 | 6.4 | 0.00 | 0.13 | 0.00 | 100 | 1011.8 |
| 20260905085203 | 20 | 282 | 1.6 | 6.4 | 0.00 | 0.13 | 0.00 | 100 | 1011.8 |
| 20260905085103 | 20 | 306 | 0.0 | 3.2 | 0.00 | 0.13 | 0.00 | 100 | 1012.0 |
| 20260905084903 | 20 | 347 | 0.0 | 3.2 | 0.00 | 0.13 | 0.00 | 100 | 1011.7 |
| 20260905084803 | 20 | 237 | 0.0 | 3.2 | 0.00 | 0.13 | 0.00 | 100 | 1011.8 |
| 20260905084703 | 20 | 265 | 0.0 | 3.2 | 0.00 | 0.13 | 0.00 | 100 | 1011.8 |
| 20260905084603 | 20 | 308 | 0.0 | 3.2 | 0.00 | 0.13 | 0.00 | 100 | 1012.1 |
| 20260905084503 | 20 | 311 | 0.0 | 3.2 | 0.00 | 0.13 | 0.00 | 100 | 1012.0 |
| 20260905084403 | 20 | 11 | 0.0 | 4.8 | 0.00 | 0.13 | 0.00 | 100 | 1012.0 |
| 20260905084303 | 20 | 7 | 0.0 | 4.8 | 0.00 | 0.13 | 0.00 | 100 | 1012.0 |
| 20260905084203 | 20 | 10 | 1.6 | 4.8 | 0.00 | 0.13 | 0.00 | 100 | 1012.0 |
| 20260905084103 | 20 | 332 | 1.6 | 4.8 | 0.00 | 0.13 | 0.00 | 100 | 1011.9 |
| 20260905084003 | 20 | 297 | 3.2 | 4.8 | 0.00 | 0.13 | 0.00 | 100 | 1012.3 |
| 20260905083903 | 20 | 283 | 3.2 | 4.8 | 0.00 | 0.13 | 0.00 | 100 | 1012.0 |
| 20260905083803 | 20 | 272 | 1.6 | 4.8 | 0.00 | 0.13 | 0.00 | 100 | 1011.9 |
| 20260905083716 | 20 | 278 | 1.6 | 4.8 | 0.00 | 0.13 | 0.00 | 100 | 1012.2 |
| 20260905083703 | 20 | 280 | 1.6 | 4.8 | 0.00 | 0.13 | 0.00 | 100 | 1012.2 |
| 20260905083603 | 20 | 273 | 3.2 | 4.8 | 0.00 | 0.13 | 0.00 | 100 | 1012.1 |
| 20260905083403 | 20 | 280 | 1.6 | 4.8 | 0.00 | 0.13 | 0.00 | 100 | 1012.0 |
| 20260905083303 | 20 | 304 | 1.6 | 4.8 | 0.00 | 0.13 | 0.00 | 100 | 1012.3 |
| 20260905083203 | 20 | 306 | 1.6 | 4.8 | 0.00 | 0.13 | 0.00 | 100 | 1012.0 |
| 20260905083118 | 20 | 268 | 1.6 | 4.8 | 0.00 | 0.13 | 0.00 | 100 | 1012.0 |
| 20260905083103 | 20 | 269 | 1.6 | 4.8 | 0.00 | 0.13 | 0.00 | 100 | 1012.0 |
| 20260905083003 | 20 | 263 | 1.6 | 4.8 | 0.00 | 0.13 | 0.00 | 100 | 1012.1 |
| 20260905082803 | 20 | 253 | 1.6 | 4.8 | 0.00 | 0.13 | 0.00 | 100 | 1011.9 |
| 20260905082703 | 20 | 225 | 1.6 | 4.8 | 0.00 | 0.13 | 0.00 | 100 | 1011.9 |
| 20260905082603 | 20 | 231 | 1.6 | 4.8 | 0.00 | 0.13 | 0.00 | 100 | 1011.8 |
| 20260905082503 | 20 | 213 | 3.2 | 4.8 | 0.00 | 0.13 | 0.00 | 100 | 1012.1 |
| 20260905082416 | 20 | 218 | 3.2 | 4.8 | 0.00 | 0.13 | 0.00 | 100 | 1012.2 |
| 20260905082317 | 20 | 222 | 1.6 | 4.8 | 0.00 | 0.13 | 0.00 | 100 | 1012.0 |
| 20260905082306 | 20 | 219 | 3.2 | 4.8 | 0.00 | 0.13 | 0.00 | 100 | 1012.0 |
| 20260905082003 | 20 | 225 | 3.2 | 4.8 | 0.00 | 0.13 | 0.00 | 100 | 1012.2 |
| 20260905081903 | 20 | 200 | 1.6 | 4.8 | 0.00 | 0.13 | 0.00 | 100 | 1012.1 |
| 20260905081803 | 20 | 217 | 1.6 | 4.8 | 0.00 | 0.13 | 0.00 | 100 | 1012.1 |
| 20260905081703 | 20 | 223 | 1.6 | 3.2 | 0.00 | 0.13 | 0.00 | 100 | 1011.9 |
| 20260905081603 | 20 | 216 | 1.6 | 3.2 | 0.00 | 0.13 | 0.00 | 100 | 1012.2 |
| 20260905081503 | 20 | 206 | 1.6 | 3.2 | 0.00 | 0.13 | 0.00 | 100 | 1012.2 |
| 20260905081403 | 20 | 218 | 3.2 | 3.2 | 0.00 | 0.13 | 0.00 | 100 | 1012.1 |
| 20260905081303 | 20 | 216 | 1.6 | 3.2 | 0.00 | 0.13 | 0.00 | 100 | 1012.0 |
| 20260905081203 | 20 | 0 | 0.0 | 0.0 | 0.00 | 0.13 | 0.00 | 100 | 1012.1 |
| 20260905081103 | 20 | 0 | 0.0 | 0.0 | 0.00 | 0.13 | 0.00 | 100 | 1012.1 |
| 20260905081003 | 20 | 0 | 0.0 | 0.0 | 0.00 | 0.13 | 0.00 | 100 | 1012.0 |
| 20260905080903 | 20 | 0 | 0.0 | 0.0 | 0.00 | 0.13 | 0.00 | 100 | 1012.1 |
| 20260905080803 | 20 | 0 | 0.0 | 0.0 | 0.00 | 0.13 | 0.00 | 100 | 1012.2 |
| 20260905080703 | 20 | 0 | 0.0 | 0.0 | 0.00 | 0.13 | 0.00 | 100 | 1011.9 |
| 20260905080603 | 20 | 0 | 0.0 | 3.2 | 0.00 | 0.13 | 0.00 | 100 | 1012.2 |
| 20260905080503 | 20 | 0 | 0.0 | 3.2 | 0.00 | 0.13 | 0.00 | 100 | 1012.1 |
| 20260905080403 | 20 | 219 | 0.0 | 3.2 | 0.00 | 0.13 | 0.00 | 100 | 1012.1 |
| 20260905080203 | 20 | 200 | 0.0 | 3.2 | 0.00 | 0.13 | 0.00 | 100 | 1012.0 |
| 20260905080003 | 20 | 0 | 0.0 | 0.0 | 0.00 | 0.13 | 0.00 | 100 | 1012.0 |
| 20260905075903 | 20 | 0 | 0.0 | 0.0 | 0.00 | 0.13 | 0.00 | 100 | 1012.1 |
| 20260905075803 | 20 | 0 | 0.0 | 0.0 | 0.00 | 0.13 | 0.00 | 100 | 1012.0 |
| 20260905075703 | 20 | 0 | 0.0 | 0.0 | 0.00 | 0.13 | 0.00 | 100 | 1012.1 |
| 20260905075603 | 20 | 0 | 0.0 | 0.0 | 0.00 | 0.13 | 0.00 | 100 | 1012.1 |
| 20260905075503 | 20 | 0 | 0.0 | 0.0 | 0.00 | 0.13 | 0.00 | 100 | 1012.1 |
| 20260905075403 | 20 | 0 | 0.0 | 0.0 | 0.00 | 0.13 | 0.00 | 100 | 1012.1 |
| 20260905075306 | 20 | 0 | 0.0 | 0.0 | 0.00 | 0.13 | 0.00 | 100 | 1012.1 |
| 20260905075203 | 20 | 0 | 0.0 | 0.0 | 0.00 | 0.13 | 0.00 | 100 | 1012.1 |
| 20260905075118 | 20 | 0 | 0.0 | 0.0 | 0.00 | 0.13 | 0.00 | 100 | 1012.2 |
| 20260905075003 | 20 | 0 | 0.0 | 0.0 | 0.00 | 0.13 | 0.00 | 100 | 1012.2 |
| 20260905074803 | 20 | 0 | 0.0 | 0.0 | 0.00 | 0.13 | 0.00 | 100 | 1012.1 |
| 20260905074703 | 20 | 0 | 0.0 | 0.0 | 0.00 | 0.13 | 0.00 | 100 | 1012.2 |
| 20260905074603 | 20 | 0 | 0.0 | 0.0 | 0.00 | 0.13 | 0.00 | 100 | 1011.9 |
| 20260905074503 | 20 | 0 | 0.0 | 0.0 | 0.00 | 0.13 | 0.00 | 100 | 1012.1 |
| 20260905074403 | 20 | 0 | 0.0 | 0.0 | 0.00 | 0.13 | 0.00 | 100 | 1012.1 |
| 20260905074303 | 20 | 0 | 0.0 | 0.0 | 0.00 | 0.13 | 0.00 | 100 | 1012.2 |
| 20260905074203 | 20 | 0 | 0.0 | 0.0 | 0.00 | 0.13 | 0.00 | 100 | 1012.2 |
| 20260905074103 | 20 | 0 | 0.0 | 0.0 | 0.00 | 0.13 | 0.00 | 100 | 1012.3 |
| 20260905074003 | 20 | 0 | 0.0 | 0.0 | 0.00 | 0.13 | 0.00 | 100 | 1012.2 |
| 20260905073903 | 20 | 0 | 0.0 | 0.0 | 0.00 | 0.13 | 0.00 | 100 | 1012.1 |
| 20260905073803 | 20 | 0 | 0.0 | 3.2 | 0.00 | 0.13 | 0.00 | 100 | 1012.2 |
| 20260905073703 | 20 | 0 | 0.0 | 3.2 | 0.00 | 0.13 | 0.00 | 100 | 1012.2 |
| 20260905073603 | 20 | 289 | 0.0 | 3.2 | 0.00 | 0.13 | 0.00 | 100 | 1012.2 |
| 20260905073503 | 20 | 288 | 1.6 | 3.2 | 0.00 | 0.13 | 0.00 | 100 | 1012.4 |
| 20260905073303 | 20 | 244 | 0.0 | 3.2 | 0.00 | 0.13 | 0.00 | 100 | 1012.4 |
| 20260905073203 | 20 | 256 | 0.0 | 3.2 | 0.00 | 0.13 | 0.00 | 100 | 1012.1 |
| 20260905073103 | 20 | 223 | 0.0 | 3.2 | 0.00 | 0.13 | 0.00 | 100 | 1012.3 |
| 20260905073003 | 20 | 232 | 0.0 | 3.2 | 0.00 | 0.13 | 0.00 | 100 | 1012.3 |
| 20260905072803 | 20 | 230 | 0.0 | 3.2 | 0.00 | 0.13 | 0.00 | 100 | 1012.4 |
| 20260905072703 | 20 | 0 | 0.0 | 0.0 | 0.00 | 0.13 | 0.00 | 100 | 1012.3 |
| 20260905072603 | 20 | 0 | 0.0 | 0.0 | 0.00 | 0.13 | 0.00 | 100 | 1012.2 |
| 20260905072503 | 20 | 0 | 0.0 | 0.0 | 0.00 | 0.13 | 0.00 | 100 | 1012.3 |
| 20260905072403 | 20 | 0 | 0.0 | 0.0 | 0.00 | 0.13 | 0.00 | 100 | 1012.4 |
| 20260905072305 | 20 | 0 | 0.0 | 3.2 | 0.00 | 0.13 | 0.00 | 100 | 1012.2 |
| 20260905072203 | 20 | 0 | 0.0 | 3.2 | 0.00 | 0.13 | 0.00 | 100 | 1012.3 |
| 20260905072117 | 20 | 0 | 0.0 | 3.2 | 0.00 | 0.13 | 0.00 | 100 | 1012.4 |
| 20260905072103 | 20 | 307 | 0.0 | 3.2 | 0.00 | 0.13 | 0.00 | 100 | 1012.4 |
| 20260905072003 | 20 | 302 | 0.0 | 3.2 | 0.00 | 0.13 | 0.00 | 100 | 1012.3 |
| 20260905071803 | 20 | 268 | 0.0 | 3.2 | 0.00 | 0.13 | 0.00 | 100 | 1012.4 |
| 20260905071703 | 20 | 307 | 0.0 | 3.2 | 0.00 | 0.13 | 0.00 | 100 | 1012.4 |
| 20260905071603 | 20 | 307 | 0.0 | 3.2 | 0.00 | 0.13 | 0.00 | 100 | 1012.5 |
| 20260905071503 | 20 | 331 | 0.0 | 3.2 | 0.00 | 0.13 | 0.00 | 100 | 1012.5 |
| 20260905071403 | 20 | 341 | 0.0 | 3.2 | 0.00 | 0.13 | 0.00 | 100 | 1012.4 |
| 20260905071316 | 20 | 323 | 0.0 | 3.2 | 0.00 | 0.13 | 0.00 | 100 | 1012.5 |
| 20260905071303 | 20 | 310 | 0.0 | 3.2 | 0.00 | 0.13 | 0.00 | 100 | 1012.5 |
| 20260905071203 | 20 | 297 | 1.6 | 3.2 | 0.00 | 0.13 | 0.00 | 100 | 1012.1 |
| 20260905071003 | 20 | 296 | 0.0 | 3.2 | 0.00 | 0.13 | 0.00 | 100 | 1012.4 |
| 20260905070903 | 20 | 319 | 0.0 | 3.2 | 0.00 | 0.13 | 0.00 | 100 | 1012.5 |
| 20260905070803 | 20 | 342 | 0.0 | 3.2 | 0.00 | 0.13 | 0.00 | 100 | 1012.5 |
| 20260905070703 | 20 | 356 | 0.0 | 3.2 | 0.00 | 0.13 | 0.00 | 100 | 1012.5 |
| 20260905070603 | 20 | 341 | 0.0 | 3.2 | 0.00 | 0.13 | 0.00 | 100 | 1012.5 |
| 20260905070503 | 20 | 306 | 0.0 | 3.2 | 0.00 | 0.13 | 0.00 | 100 | 1012.4 |
| 20260905070403 | 20 | 247 | 0.0 | 3.2 | 0.00 | 0.13 | 0.00 | 100 | 1012.7 |
| 20260905070303 | 20 | 232 | 0.0 | 3.2 | 0.00 | 0.13 | 0.00 | 100 | 1012.7 |
| 20260905070203 | 20 | 228 | 0.0 | 3.2 | 0.00 | 0.13 | 0.00 | 100 | 1012.5 |
| 20260905070003 | 20 | 254 | 0.0 | 3.2 | 0.00 | 0.13 | 0.00 | 100 | 1012.4 |
| 20260905065903 | 20 | 265 | 0.0 | 3.2 | 0.00 | 0.13 | 0.00 | 100 | 1012.5 |
| 20260905065803 | 20 | 309 | 0.0 | 3.2 | 0.00 | 0.13 | 0.00 | 100 | 1012.7 |
| 20260905065703 | 20 | 329 | 0.0 | 3.2 | 0.00 | 0.13 | 0.00 | 100 | 1012.9 |
| 20260905065617 | 20 | 321 | 0.0 | 3.2 | 0.00 | 0.13 | 0.00 | 100 | 1012.9 |
| 20260905065603 | 20 | 320 | 0.0 | 3.2 | 0.00 | 0.13 | 0.00 | 100 | 1012.9 |
| 20260905065503 | 20 | 306 | 0.0 | 3.2 | 0.00 | 0.13 | 0.00 | 100 | 1013.1 |
| 20260905065306 | 20 | 220 | 0.0 | 3.2 | 0.00 | 0.13 | 0.00 | 100 | 1012.9 |
| 20260905065203 | 20 | 220 | 0.0 | 3.2 | 0.00 | 0.13 | 0.00 | 100 | 1013.1 |
| 20260905065117 | 20 | 220 | 0.0 | 4.8 | 0.00 | 0.13 | 0.00 | 100 | 1012.7 |
| 20260905065103 | 20 | 231 | 0.0 | 4.8 | 0.00 | 0.13 | 0.00 | 100 | 1012.7 |
| 20260905065003 | 20 | 264 | 0.0 | 4.8 | 0.00 | 0.15 | 0.00 | 100 | 1013.0 |
| 20260905064803 | 20 | 266 | 3.2 | 4.8 | 0.00 | 0.15 | 0.00 | 100 | 1013.1 |
| 20260905064703 | 20 | 317 | 1.6 | 4.8 | 0.00 | 0.15 | 0.00 | 100 | 1013.0 |
| 20260905064616 | 20 | 23 | 0.0 | 3.2 | 0.00 | 0.15 | 0.00 | 100 | 1013.1 |
| 20260905064603 | 20 | 61 | 0.0 | 3.2 | 0.00 | 0.15 | 0.00 | 100 | 1013.1 |
| 20260905064517 | 20 | 46 | 0.0 | 3.2 | 0.00 | 0.15 | 0.00 | 100 | 1013.1 |
| 20260905064503 | 20 | 2 | 0.0 | 3.2 | 0.00 | 0.15 | 0.00 | 100 | 1013.1 |
| 20260905064217 | 20 | 251 | 1.6 | 8.0 | 0.00 | 0.15 | 0.00 | 100 | 1013.2 |
| 20260905064203 | 20 | 288 | 1.6 | 8.0 | 0.00 | 0.15 | 0.00 | 100 | 1013.2 |
| 20260905064103 | 20 | 321 | 1.6 | 8.0 | 0.00 | 0.15 | 0.00 | 100 | 1013.2 |
| 20260905063903 | 20 | 247 | 0.0 | 4.8 | 0.00 | 0.15 | 0.00 | 100 | 1013.2 |
| 20260905063803 | 20 | 244 | 1.6 | 4.8 | 0.00 | 0.15 | 0.00 | 100 | 1013.3 |
| 20260905063703 | 20 | 211 | 1.6 | 4.8 | 0.00 | 0.15 | 0.00 | 100 | 1013.3 |
| 20260905063603 | 20 | 202 | 0.0 | 3.2 | 0.00 | 0.15 | 0.00 | 100 | 1013.1 |
| 20260905063503 | 20 | 201 | 1.6 | 3.2 | 0.00 | 0.15 | 0.00 | 100 | 1013.1 |
| 20260905063403 | 20 | 228 | 0.0 | 3.2 | 0.00 | 0.15 | 0.00 | 100 | 1013.3 |
| 20260905063203 | 20 | 226 | 0.0 | 3.2 | 0.00 | 0.15 | 0.00 | 100 | 1013.2 |
| 20260905063103 | 20 | 222 | 1.6 | 3.2 | 0.00 | 0.15 | 0.00 | 100 | 1013.2 |
| 20260905063003 | 20 | 215 | 1.6 | 3.2 | 0.00 | 0.15 | 0.00 | 100 | 1013.1 |
| 20260905062903 | 20 | 208 | 3.2 | 3.2 | 0.00 | 0.15 | 0.00 | 100 | 1013.3 |
| 20260905062803 | 20 | 203 | 3.2 | 3.2 | 0.00 | 0.15 | 0.00 | 100 | 1013.2 |
| 20260905062703 | 20 | 202 | 1.6 | 3.2 | 0.00 | 0.15 | 0.00 | 100 | 1013.3 |
| 20260905062603 | 20 | 207 | 1.6 | 3.2 | 0.00 | 0.15 | 0.00 | 100 | 1013.3 |
| 20260905062503 | 20 | 214 | 1.6 | 3.2 | 0.00 | 0.15 | 0.00 | 100 | 1013.2 |
| 20260905062403 | 20 | 220 | 1.6 | 3.2 | 0.00 | 0.15 | 0.00 | 100 | 1013.2 |
| 20260905062305 | 20 | 224 | 1.6 | 3.2 | 0.00 | 0.15 | 0.00 | 100 | 1013.2 |
| 20260905062203 | 20 | 233 | 0.0 | 3.2 | 0.00 | 0.15 | 0.00 | 100 | 1013.2 |
| 20260905062103 | 20 | 236 | 0.0 | 3.2 | 0.00 | 0.15 | 0.00 | 100 | 1013.5 |
| 20260905062003 | 20 | 0 | 0.0 | 0.0 | 0.00 | 0.15 | 0.00 | 100 | 1013.3 |
| 20260905061903 | 20 | 0 | 0.0 | 0.0 | 0.00 | 0.15 | 0.00 | 100 | 1013.3 |
| 20260905061803 | 20 | 0 | 0.0 | 0.0 | 0.00 | 0.15 | 0.00 | 100 | 1013.3 |
| 20260905061603 | 20 | 0 | 0.0 | 0.0 | 0.00 | 0.15 | 0.00 | 100 | 1013.1 |
| 20260905061503 | 20 | 0 | 0.0 | 0.0 | 0.00 | 0.15 | 0.00 | 100 | 1013.1 |
| 20260905061403 | 20 | 0 | 0.0 | 0.0 | 0.00 | 0.15 | 0.00 | 100 | 1013.2 |
| 20260905061303 | 20 | 0 | 0.0 | 0.0 | 0.00 | 0.15 | 0.00 | 100 | 1013.2 |
| 20260905061203 | 20 | 0 | 0.0 | 0.0 | 0.00 | 0.15 | 0.00 | 100 | 1013.2 |
| 20260905061103 | 20 | 0 | 0.0 | 0.0 | 0.00 | 0.15 | 0.00 | 100 | 1013.2 |
| 20260905061003 | 20 | 0 | 0.0 | 0.0 | 0.00 | 0.15 | 0.00 | 100 | 1013.2 |
| 20260905060703 | 20 | 0 | 0.0 | 0.0 | 0.00 | 0.15 | 0.00 | 100 | 1013.6 |
| 20260905060603 | 20 | 0 | 0.0 | 0.0 | 0.00 | 0.15 | 0.00 | 100 | 1013.2 |
| 20260905060503 | 20 | 0 | 0.0 | 0.0 | 0.00 | 0.15 | 0.00 | 100 | 1013.4 |
| 20260905060403 | 20 | 0 | 0.0 | 0.0 | 0.00 | 0.15 | 0.00 | 100 | 1013.3 |
| 20260905060303 | 20 | 0 | 0.0 | 0.0 | 0.00 | 0.15 | 0.00 | 100 | 1013.4 |
| 20260905060203 | 20 | 0 | 0.0 | 0.0 | 0.00 | 0.15 | 0.00 | 100 | 1013.5 |
| 20260905060003 | 20 | 0 | 0.0 | 3.2 | 0.00 | 0.15 | 0.00 | 100 | 1013.6 |
| 20260905055903 | 20 | 209 | 0.0 | 3.2 | 0.00 | 0.15 | 0.00 | 100 | 1013.4 |
| 20260905055803 | 20 | 209 | 0.0 | 3.2 | 0.00 | 0.15 | 0.00 | 100 | 1013.5 |
| 20260905055603 | 20 | 0 | 0.0 | 0.0 | 0.00 | 0.15 | 0.00 | 100 | 1013.5 |
| 20260905055503 | 20 | 0 | 0.0 | 0.0 | 0.00 | 0.15 | 0.00 | 100 | 1013.5 |
| 20260905055403 | 20 | 0 | 0.0 | 0.0 | 0.00 | 0.15 | 0.00 | 100 | 1013.6 |
| 20260905055306 | 20 | 0 | 0.0 | 3.2 | 0.00 | 0.15 | 0.00 | 100 | 1013.6 |
| 20260905055203 | 20 | 0 | 0.0 | 3.2 | 0.00 | 0.15 | 0.00 | 100 | 1013.6 |
| 20260905055117 | 20 | 132 | 0.0 | 3.2 | 0.00 | 0.15 | 0.00 | 100 | 1013.5 |
| 20260905055103 | 20 | 134 | 0.0 | 3.2 | 0.00 | 0.15 | 0.00 | 100 | 1013.5 |
| 20260905055018 | 20 | 142 | 0.0 | 3.2 | 0.00 | 0.18 | 0.00 | 100 | 1013.6 |
| 20260905055003 | 20 | 147 | 0.0 | 3.2 | 0.00 | 0.18 | 0.00 | 100 | 1013.6 |
| 20260905054703 | 20 | 0 | 0.0 | 0.0 | 0.00 | 0.18 | 0.00 | 100 | 1013.7 |
| 20260905054603 | 20 | 0 | 0.0 | 0.0 | 0.00 | 0.18 | 0.00 | 100 | 1013.7 |
| 20260905054503 | 20 | 0 | 0.0 | 0.0 | 0.00 | 0.20 | 0.00 | 100 | 1013.8 |
| 20260905054403 | 20 | 0 | 0.0 | 0.0 | 0.00 | 0.20 | 0.00 | 100 | 1013.6 |
| 20260905054203 | 20 | 0 | 0.0 | 0.0 | 0.00 | 0.23 | 0.00 | 100 | 1013.7 |
| 20260905054103 | 20 | 0 | 0.0 | 0.0 | 0.00 | 0.23 | 0.00 | 100 | 1013.9 |
| 20260905054003 | 20 | 0 | 0.0 | 0.0 | 0.00 | 0.23 | 0.00 | 100 | 1013.6 |
| 20260905053903 | 20 | 0 | 0.0 | 0.0 | 0.00 | 0.23 | 0.00 | 100 | 1013.8 |
| 20260905053803 | 20 | 0 | 0.0 | 3.2 | 0.00 | 0.23 | 0.00 | 100 | 1013.6 |
| 20260905053703 | 20 | 0 | 0.0 | 3.2 | 0.00 | 0.25 | 0.00 | 100 | 1013.9 |
| 20260905053603 | 20 | 179 | 0.0 | 3.2 | 0.00 | 0.25 | 0.00 | 100 | 1013.7 |
| 20260905053516 | 20 | 179 | 0.0 | 3.2 | 0.00 | 0.28 | 0.00 | 100 | 1013.6 |
| 20260905053503 | 20 | 180 | 0.0 | 3.2 | 0.00 | 0.28 | 0.00 | 100 | 1013.6 |
| 20260905053403 | 20 | 177 | 0.0 | 3.2 | 0.00 | 0.28 | 0.00 | 100 | 1013.7 |
| 20260905053203 | 20 | 201 | 0.0 | 3.2 | 0.00 | 0.41 | 0.00 | 100 | 1013.8 |
| 20260905053103 | 20 | 191 | 0.0 | 3.2 | 0.00 | 0.66 | 0.00 | 100 | 1013.9 |
| 20260905053003 | 20 | 181 | 0.0 | 8.0 | 0.00 | 0.76 | 0.00 | 100 | 1013.7 |
| 20260905052903 | 20 | 208 | 0.0 | 8.0 | 0.00 | 0.89 | 0.00 | 100 | 1013.8 |
| 20260905052817 | 20 | 204 | 0.0 | 8.0 | 0.00 | 0.97 | 0.00 | 100 | 1013.8 |
| 20260905052803 | 20 | 197 | 1.6 | 8.0 | 0.00 | 0.97 | 0.00 | 100 | 1013.8 |
| 20260905052703 | 20 | 183 | 1.6 | 8.0 | 0.00 | 1.19 | 0.00 | 100 | 1013.9 |
| 20260905052503 | 20 | 206 | 4.8 | 8.0 | 0.00 | 1.40 | 0.00 | 100 | 1013.9 |
| 20260905052417 | 20 | 211 | 4.8 | 8.0 | 0.00 | 1.45 | 0.00 | 100 | 1014.0 |
| 20260905052403 | 20 | 215 | 4.8 | 8.0 | 0.00 | 1.45 | 0.00 | 100 | 1014.0 |
| 20260905052306 | 20 | 216 | 4.8 | 8.0 | 0.00 | 1.45 | 0.00 | 100 | 1013.8 |
| 20260905052117 | 20 | 204 | 4.8 | 9.7 | 0.00 | 1.45 | 0.00 | 100 | 1014.1 |
| 20260905052103 | 20 | 204 | 6.4 | 9.7 | 0.00 | 1.45 | 0.00 | 100 | 1014.1 |
| 20260905052003 | 20 | 211 | 6.4 | 9.7 | 0.00 | 1.45 | 0.00 | 100 | 1014.0 |
| 20260905051817 | 20 | 209 | 6.4 | 9.7 | 0.00 | 1.45 | 0.00 | 100 | 1013.9 |
| 20260905051803 | 20 | 212 | 6.4 | 9.7 | 0.00 | 1.45 | 0.00 | 100 | 1013.9 |
| 20260905051703 | 20 | 202 | 6.4 | 9.7 | 0.00 | 1.45 | 0.00 | 100 | 1013.8 |
| 20260905051503 | 20 | 207 | 6.4 | 8.0 | 0.00 | 1.45 | 0.00 | 100 | 1013.9 |
| 20260905051417 | 20 | 211 | 4.8 | 8.0 | 0.00 | 1.45 | 0.00 | 100 | 1013.8 |
| 20260905051403 | 20 | 208 | 4.8 | 8.0 | 0.00 | 1.45 | 0.00 | 100 | 1013.8 |
| 20260905051303 | 20 | 229 | 4.8 | 4.8 | 0.00 | 1.45 | 0.00 | 100 | 1013.7 |
| 20260905051103 | 20 | 214 | 1.6 | 4.8 | 0.00 | 1.45 | 0.00 | 100 | 1013.8 |
| 20260905051003 | 20 | 216 | 1.6 | 4.8 | 0.00 | 1.45 | 0.00 | 100 | 1013.6 |
| 20260905050903 | 20 | 219 | 0.0 | 3.2 | 0.00 | 1.45 | 0.00 | 100 | 1013.9 |
| 20260905050803 | 20 | 198 | 1.6 | 4.8 | 0.00 | 1.45 | 0.00 | 100 | 1013.6 |
| 20260905050703 | 20 | 185 | 1.6 | 4.8 | 0.00 | 1.45 | 0.00 | 100 | 1013.7 |
| 20260905050603 | 20 | 199 | 1.6 | 4.8 | 0.00 | 1.45 | 0.00 | 100 | 1013.9 |
| 20260905050503 | 20 | 205 | 1.6 | 4.8 | 0.00 | 1.45 | 0.00 | 100 | 1013.9 |
| 20260905050403 | 20 | 191 | 1.6 | 4.8 | 0.00 | 1.45 | 0.00 | 100 | 1014.0 |
| 20260905050303 | 20 | 186 | 1.6 | 3.2 | 0.00 | 1.45 | 0.00 | 100 | 1013.9 |
| 20260905050203 | 20 | 192 | 1.6 | 4.8 | 0.00 | 1.45 | 0.00 | 100 | 1014.1 |
| 20260905050117 | 20 | 198 | 1.6 | 4.8 | 0.00 | 1.45 | 0.00 | 100 | 1013.7 |
| 20260905050003 | 20 | 222 | 0.0 | 4.8 | 0.00 | 1.45 | 0.00 | 100 | 1013.9 |
| 20260905045803 | 20 | 220 | 3.2 | 4.8 | 0.00 | 1.45 | 0.00 | 100 | 1013.9 |
| 20260905045703 | 20 | 225 | 3.2 | 4.8 | 0.00 | 1.45 | 0.00 | 100 | 1014.0 |
| 20260905045603 | 20 | 221 | 3.2 | 4.8 | 0.00 | 1.45 | 0.00 | 100 | 1013.8 |
| 20260905045503 | 20 | 210 | 3.2 | 4.8 | 0.00 | 1.45 | 0.00 | 100 | 1013.9 |
| 20260905045403 | 20 | 222 | 3.2 | 4.8 | 0.00 | 1.45 | 0.00 | 100 | 1013.8 |
| 20260905045305 | 20 | 213 | 3.2 | 4.8 | 0.00 | 1.45 | 0.00 | 100 | 1013.8 |
| 20260905045203 | 20 | 212 | 1.6 | 4.8 | 0.00 | 1.45 | 0.00 | 100 | 1013.9 |
| 20260905045017 | 20 | 220 | 3.2 | 4.8 | 0.00 | 1.45 | 0.00 | 100 | 1013.9 |
| 20260905045003 | 20 | 218 | 3.2 | 4.8 | 0.00 | 1.45 | 0.00 | 100 | 1013.9 |
| 20260905044903 | 20 | 210 | 4.8 | 4.8 | 0.00 | 1.45 | 0.00 | 100 | 1014.0 |
| 20260905044717 | 20 | 209 | 3.2 | 4.8 | 0.00 | 1.45 | 0.00 | 100 | 1013.8 |
| 20260905044703 | 20 | 208 | 3.2 | 4.8 | 0.00 | 1.45 | 0.00 | 100 | 1013.8 |
| 20260905044603 | 20 | 209 | 3.2 | 4.8 | 0.00 | 1.45 | 0.00 | 100 | 1013.8 |
| 20260905044417 | 20 | 191 | 3.2 | 3.2 | 0.00 | 1.45 | 0.00 | 100 | 1014.0 |
| 20260905044403 | 20 | 185 | 3.2 | 3.2 | 0.00 | 1.45 | 0.00 | 100 | 1014.0 |
| 20260905044303 | 20 | 185 | 3.2 | 3.2 | 0.00 | 1.45 | 0.00 | 100 | 1013.8 |
| 20260905044117 | 20 | 183 | 3.2 | 3.2 | 0.00 | 1.45 | 0.00 | 97 | 1014.0 |
| 20260905044103 | 20 | 180 | 3.2 | 3.2 | 0.00 | 1.45 | 0.00 | 97 | 1014.0 |
| 20260905044003 | 20 | 187 | 1.6 | 3.2 | 0.00 | 1.45 | 0.00 | 97 | 1013.9 |
| 20260905043803 | 20 | 210 | 1.6 | 4.8 | 0.00 | 1.45 | 0.00 | 97 | 1014.0 |
| 20260905043717 | 20 | 189 | 3.2 | 4.8 | 0.00 | 1.45 | 0.00 | 97 | 1013.8 |
| 20260905043703 | 20 | 187 | 3.2 | 4.8 | 0.00 | 1.45 | 0.00 | 97 | 1013.8 |
| 20260905043603 | 20 | 188 | 3.2 | 4.8 | 0.00 | 1.45 | 0.00 | 97 | 1013.7 |
| 20260905043403 | 20 | 195 | 3.2 | 4.8 | 0.00 | 1.45 | 0.00 | 97 | 1013.7 |
| 20260905043303 | 20 | 196 | 1.6 | 3.2 | 0.00 | 1.45 | 0.00 | 97 | 1013.8 |
| 20260905043218 | 20 | 206 | 0.0 | 3.2 | 0.00 | 1.45 | 0.00 | 97 | 1013.6 |
| 20260905043203 | 20 | 204 | 0.0 | 3.2 | 0.00 | 1.45 | 0.00 | 97 | 1013.6 |
| 20260905043103 | 20 | 210 | 0.0 | 3.2 | 0.00 | 1.45 | 0.00 | 97 | 1013.9 |
| 20260905043017 | 20 | 225 | 0.0 | 4.8 | 0.00 | 1.45 | 0.00 | 97 | 1013.8 |
| 20260905042918 | 20 | 228 | 0.0 | 4.8 | 0.00 | 1.45 | 0.00 | 97 | 1013.8 |
| 20260905042903 | 20 | 230 | 0.0 | 4.8 | 0.00 | 1.45 | 0.00 | 97 | 1013.8 |
| 20260905042816 | 20 | 225 | 1.6 | 4.8 | 0.00 | 1.45 | 0.00 | 97 | 1013.8 |
| 20260905042717 | 20 | 221 | 3.2 | 4.8 | 0.00 | 1.45 | 0.00 | 97 | 1013.8 |
| 20260905042403 | 20 | 225 | 1.6 | 3.2 | 0.00 | 1.45 | 0.00 | 96 | 1013.7 |
| 20260905042317 | 20 | 234 | 1.6 | 3.2 | 0.00 | 1.45 | 0.00 | 96 | 1013.5 |
| 20260905042306 | 20 | 231 | 1.6 | 3.2 | 0.00 | 1.45 | 0.00 | 96 | 1013.5 |
| 20260905042203 | 20 | 223 | 0.0 | 3.2 | 0.00 | 1.45 | 0.00 | 96 | 1013.7 |
| 20260905042116 | 20 | 221 | 0.0 | 3.2 | 0.00 | 1.45 | 0.00 | 96 | 1013.6 |
| 20260905042017 | 20 | 209 | 0.0 | 3.2 | 0.00 | 1.45 | 0.00 | 96 | 1013.7 |
| 20260905042003 | 20 | 203 | 0.0 | 3.2 | 0.00 | 1.45 | 0.00 | 96 | 1013.7 |
| 20260905041703 | 20 | 207 | 0.0 | 3.2 | 0.00 | 1.45 | 0.00 | 96 | 1013.6 |
| 20260905041617 | 20 | 218 | 0.0 | 3.2 | 0.00 | 1.45 | 0.00 | 96 | 1013.4 |
| 20260905041603 | 20 | 219 | 0.0 | 3.2 | 0.00 | 1.45 | 0.00 | 96 | 1013.4 |
| 20260905041503 | 20 | 214 | 0.0 | 3.2 | 0.00 | 1.45 | 0.00 | 96 | 1013.6 |
| 20260905041416 | 20 | 209 | 0.0 | 3.2 | 0.00 | 1.45 | 0.00 | 96 | 1013.5 |
| 20260905041303 | 20 | 0 | 0.0 | 3.2 | 0.00 | 1.45 | 0.00 | 96 | 1013.5 |
| 20260905041218 | 20 | 145 | 0.0 | 3.2 | 0.00 | 1.45 | 0.00 | 96 | 1013.7 |
| 20260905041103 | 20 | 145 | 0.0 | 3.2 | 0.00 | 1.45 | 0.00 | 96 | 1013.6 |
| 20260905040903 | 20 | 140 | 0.0 | 3.2 | 0.00 | 1.45 | 0.00 | 95 | 1013.4 |
| 20260905040803 | 20 | 0 | 0.0 | 3.2 | 0.00 | 1.45 | 0.00 | 95 | 1013.5 |
| 20260905040703 | 20 | 140 | 0.0 | 3.2 | 0.00 | 1.45 | 0.00 | 95 | 1013.6 |
| 20260905040503 | 21 | 0 | 0.0 | 3.2 | 0.00 | 1.45 | 0.00 | 95 | 1013.4 |
| 20260905040403 | 21 | 156 | 0.0 | 3.2 | 0.00 | 1.45 | 0.00 | 95 | 1013.4 |
| 20260905040203 | 21 | 139 | 1.6 | 3.2 | 0.00 | 1.45 | 0.00 | 95 | 1013.4 |
| 20260905040103 | 21 | 159 | 0.0 | 3.2 | 0.00 | 1.45 | 0.00 | 95 | 1013.6 |
| 20260905040017 | 21 | 179 | 0.0 | 3.2 | 0.00 | 1.45 | 0.00 | 95 | 1013.7 |
| 20260905040003 | 21 | 175 | 0.0 | 3.2 | 0.00 | 1.45 | 0.00 | 95 | 1013.7 |
| 20260905035903 | 21 | 154 | 0.0 | 3.2 | 0.00 | 1.45 | 1.45 | 95 | 1013.6 |
| 20260905035703 | 21 | 148 | 0.0 | 3.2 | 0.00 | 1.45 | 1.45 | 95 | 1013.5 |
| 20260905035603 | 21 | 150 | 0.0 | 3.2 | 0.00 | 1.45 | 1.45 | 94 | 1013.5 |
| 20260905035503 | 21 | 0 | 0.0 | 3.2 | 0.00 | 1.45 | 1.45 | 94 | 1013.4 |
| 20260905035403 | 21 | 216 | 0.0 | 3.2 | 0.00 | 1.45 | 1.45 | 94 | 1013.7 |
| 20260905035317 | 21 | 200 | 0.0 | 3.2 | 0.00 | 1.45 | 1.45 | 94 | 1013.6 |
| 20260905035306 | 21 | 187 | 0.0 | 3.2 | 0.00 | 1.45 | 1.45 | 94 | 1013.6 |
| 20260905035017 | 21 | 148 | 1.6 | 3.2 | 0.00 | 1.45 | 1.45 | 94 | 1013.4 |
| 20260905035003 | 21 | 145 | 1.6 | 3.2 | 0.00 | 1.45 | 1.45 | 94 | 1013.4 |
| 20260905034903 | 21 | 140 | 1.6 | 3.2 | 0.00 | 1.45 | 1.45 | 94 | 1013.6 |
| 20260905034603 | 21 | 0 | 0.0 | 0.0 | 0.00 | 1.45 | 1.45 | 94 | 1013.7 |
| 20260905034503 | 21 | 0 | 0.0 | 0.0 | 0.00 | 1.45 | 1.45 | 93 | 1013.7 |
| 20260905034403 | 21 | 0 | 0.0 | 0.0 | 0.00 | 1.45 | 1.45 | 93 | 1013.5 |
| 20260905034303 | 21 | 0 | 0.0 | 0.0 | 0.00 | 1.45 | 1.45 | 93 | 1013.5 |
| 20260905034203 | 21 | 0 | 0.0 | 3.2 | 0.00 | 1.45 | 1.45 | 93 | 1013.6 |
| 20260905034103 | 21 | 0 | 0.0 | 3.2 | 0.00 | 1.45 | 1.45 | 93 | 1013.7 |
| 20260905033903 | 21 | 162 | 0.0 | 6.4 | 0.00 | 1.45 | 1.45 | 93 | 1013.6 |
| 20260905033803 | 21 | 159 | 0.0 | 6.4 | 0.00 | 1.45 | 1.45 | 93 | 1013.6 |
| 20260905033703 | 21 | 173 | 1.6 | 6.4 | 0.00 | 1.45 | 1.45 | 93 | 1013.6 |
| 20260905033603 | 21 | 176 | 3.2 | 6.4 | 0.00 | 1.45 | 1.45 | 93 | 1013.5 |
| 20260905033503 | 21 | 210 | 1.6 | 4.8 | 0.00 | 1.45 | 1.45 | 93 | 1013.5 |
| 20260905033418 | 21 | 194 | 0.0 | 3.2 | 0.00 | 1.45 | 1.45 | 93 | 1013.6 |
| 20260905033403 | 21 | 190 | 0.0 | 3.2 | 0.00 | 1.45 | 1.45 | 93 | 1013.6 |
| 20260905033303 | 21 | 205 | 1.6 | 3.2 | 0.00 | 1.45 | 1.45 | 93 | 1013.3 |
| 20260905033103 | 21 | 202 | 0.0 | 3.2 | 0.00 | 1.45 | 1.45 | 93 | 1013.7 |
| 20260905033003 | 21 | 0 | 0.0 | 0.0 | 0.00 | 1.45 | 1.45 | 93 | 1013.8 |
| 20260905032903 | 21 | 0 | 0.0 | 0.0 | 0.00 | 1.45 | 1.45 | 93 | 1013.6 |
| 20260905032803 | 21 | 0 | 0.0 | 3.2 | 0.00 | 1.45 | 1.45 | 93 | 1013.7 |
| 20260905032703 | 21 | 0 | 0.0 | 4.8 | 0.00 | 1.45 | 1.45 | 92 | 1013.8 |
| 20260905032603 | 21 | 232 | 0.0 | 4.8 | 0.00 | 1.45 | 1.45 | 92 | 1013.7 |
| 20260905032503 | 21 | 232 | 0.0 | 4.8 | 0.00 | 1.45 | 1.45 | 92 | 1013.6 |
| 20260905032403 | 21 | 241 | 1.6 | 4.8 | 0.00 | 1.45 | 1.45 | 92 | 1013.7 |
| 20260905032217 | 21 | 203 | 0.0 | 3.2 | 0.00 | 1.45 | 1.45 | 92 | 1013.7 |
| 20260905032203 | 21 | 205 | 0.0 | 3.2 | 0.00 | 1.45 | 1.45 | 92 | 1013.7 |
| 20260905032118 | 21 | 211 | 0.0 | 3.2 | 0.00 | 1.45 | 1.45 | 92 | 1013.7 |
| 20260905032103 | 21 | 215 | 0.0 | 3.2 | 0.00 | 1.45 | 1.45 | 92 | 1013.7 |
| 20260905031803 | 21 | 237 | 0.0 | 3.2 | 0.00 | 1.45 | 1.45 | 91 | 1013.6 |
| 20260905031703 | 21 | 256 | 0.0 | 3.2 | 0.00 | 1.45 | 1.45 | 91 | 1013.5 |
| 20260905031603 | 21 | 284 | 0.0 | 3.2 | 0.00 | 1.45 | 1.45 | 91 | 1013.7 |
| 20260905031503 | 21 | 275 | 0.0 | 3.2 | 0.00 | 1.45 | 1.45 | 91 | 1013.6 |
| 20260905031403 | 21 | 0 | 0.0 | 0.0 | 0.00 | 1.45 | 1.45 | 91 | 1013.7 |
| 20260905031303 | 21 | 0 | 0.0 | 0.0 | 0.00 | 1.45 | 1.45 | 91 | 1013.6 |
| 20260905031203 | 21 | 0 | 0.0 | 0.0 | 0.00 | 1.45 | 1.45 | 91 | 1013.7 |
| 20260905031103 | 21 | 0 | 0.0 | 3.2 | 0.00 | 1.45 | 1.45 | 91 | 1013.5 |
| 20260905031003 | 21 | 0 | 0.0 | 3.2 | 0.00 | 1.45 | 1.45 | 91 | 1013.6 |
| 20260905030903 | 21 | 238 | 0.0 | 3.2 | 0.00 | 1.45 | 1.45 | 90 | 1013.7 |
| 20260905030716 | 21 | 259 | 1.6 | 4.8 | 0.00 | 1.45 | 1.45 | 90 | 1013.5 |
| 20260905030703 | 21 | 258 | 1.6 | 4.8 | 0.00 | 1.45 | 1.45 | 90 | 1013.5 |
| 20260905030603 | 21 | 303 | 1.6 | 4.8 | 0.00 | 1.45 | 1.45 | 90 | 1013.6 |
| 20260905030403 | 21 | 237 | 0.0 | 4.8 | 0.00 | 1.45 | 1.45 | 90 | 1013.6 |
| 20260905030317 | 21 | 232 | 3.2 | 4.8 | 0.00 | 1.45 | 1.45 | 91 | 1013.6 |
| 20260905030303 | 21 | 212 | 3.2 | 4.8 | 0.00 | 1.45 | 1.45 | 91 | 1013.6 |
| 20260905030218 | 21 | 171 | 3.2 | 4.8 | 0.00 | 1.45 | 1.45 | 91 | 1013.4 |
| 20260905030203 | 21 | 169 | 3.2 | 4.8 | 0.00 | 1.45 | 1.45 | 91 | 1013.4 |
| 20260905030118 | 21 | 184 | 3.2 | 4.8 | 0.00 | 1.45 | 1.45 | 91 | 1013.4 |
| 20260905025803 | 21 | 208 | 0.0 | 3.2 | 0.00 | 1.45 | 1.45 | 91 | 1013.7 |
| 20260905025716 | 21 | 197 | 0.0 | 3.2 | 0.00 | 1.45 | 1.45 | 91 | 1013.6 |
| 20260905025703 | 21 | 175 | 0.0 | 3.2 | 0.00 | 1.45 | 1.45 | 91 | 1013.6 |
| 20260905025603 | 21 | 144 | 0.0 | 3.2 | 0.00 | 1.45 | 1.45 | 91 | 1013.6 |
| 20260905025403 | 21 | 216 | 0.0 | 3.2 | 0.00 | 1.45 | 1.45 | 91 | 1013.6 |
| 20260905025306 | 21 | 259 | 0.0 | 3.2 | 0.00 | 1.45 | 1.45 | 91 | 1013.6 |
| 20260905025203 | 21 | 260 | 0.0 | 3.2 | 0.00 | 1.45 | 1.45 | 91 | 1013.7 |
| 20260905025103 | 21 | 237 | 0.0 | 3.2 | 0.00 | 1.45 | 1.45 | 91 | 1013.6 |
| 20260905025003 | 22 | 224 | 0.0 | 8.0 | 0.00 | 1.45 | 1.45 | 90 | 1013.6 |
| 20260905024903 | 22 | 282 | 0.0 | 8.0 | 0.00 | 1.45 | 1.45 | 90 | 1013.8 |
| 20260905024803 | 21 | 294 | 1.6 | 8.0 | 0.00 | 1.45 | 1.45 | 90 | 1013.5 |
| 20260905024716 | 21 | 281 | 3.2 | 8.0 | 0.00 | 1.45 | 1.45 | 90 | 1013.8 |
| 20260905024703 | 21 | 284 | 3.2 | 8.0 | 0.00 | 1.45 | 1.45 | 90 | 1013.8 |
| 20260905024603 | 21 | 296 | 3.2 | 8.0 | 0.00 | 1.45 | 1.45 | 90 | 1013.6 |
| 20260905024517 | 21 | 303 | 3.2 | 8.0 | 0.00 | 1.45 | 1.45 | 91 | 1013.7 |
| 20260905024418 | 21 | 275 | 1.6 | 4.8 | 0.00 | 1.45 | 1.45 | 91 | 1013.8 |
| 20260905024403 | 21 | 269 | 1.6 | 4.8 | 0.00 | 1.45 | 1.45 | 91 | 1013.8 |
| 20260905024103 | 21 | 273 | 3.2 | 6.4 | 0.00 | 1.45 | 1.45 | 91 | 1013.7 |
| 20260905024003 | 21 | 273 | 3.2 | 6.4 | 0.00 | 1.45 | 1.45 | 91 | 1013.6 |
| 20260905023903 | 21 | 280 | 3.2 | 6.4 | 0.00 | 1.45 | 1.45 | 91 | 1013.5 |
| 20260905023803 | 21 | 273 | 3.2 | 6.4 | 0.00 | 1.45 | 1.45 | 91 | 1013.5 |
| 20260905023603 | 21 | 266 | 0.0 | 3.2 | 0.00 | 1.45 | 1.45 | 91 | 1013.7 |
| 20260905023503 | 21 | 235 | 0.0 | 3.2 | 0.00 | 1.45 | 1.45 | 91 | 1013.7 |
| 20260905023403 | 21 | 225 | 0.0 | 3.2 | 0.00 | 1.45 | 1.45 | 91 | 1013.7 |
| 20260905023303 | 21 | 236 | 1.6 | 3.2 | 0.00 | 1.45 | 1.45 | 91 | 1013.7 |
| 20260905023203 | 21 | 235 | 1.6 | 3.2 | 0.00 | 1.45 | 1.45 | 91 | 1013.7 |
| 20260905023103 | 21 | 228 | 0.0 | 3.2 | 0.00 | 1.45 | 1.45 | 91 | 1013.9 |
| 20260905023003 | 21 | 218 | 0.0 | 3.2 | 0.00 | 1.45 | 1.45 | 91 | 1013.9 |
| 20260905022903 | 21 | 227 | 0.0 | 3.2 | 0.00 | 1.45 | 1.45 | 91 | 1013.8 |
| 20260905022817 | 21 | 234 | 0.0 | 3.2 | 0.00 | 1.45 | 1.45 | 91 | 1013.5 |
| 20260905022803 | 21 | 250 | 0.0 | 3.2 | 0.00 | 1.45 | 1.45 | 91 | 1013.5 |
| 20260905022703 | 21 | 259 | 0.0 | 3.2 | 0.00 | 1.45 | 1.45 | 91 | 1013.8 |
| 20260905022617 | 21 | 233 | 0.0 | 3.2 | 0.00 | 1.45 | 1.45 | 91 | 1013.6 |
| 20260905022519 | 21 | 0 | 0.0 | 3.2 | 0.00 | 1.45 | 1.45 | 91 | 1013.9 |
| 20260905022503 | 21 | 214 | 0.0 | 3.2 | 0.00 | 1.45 | 1.45 | 91 | 1013.9 |
| 20260905022203 | 21 | 233 | 1.6 | 3.2 | 0.00 | 1.45 | 1.45 | 91 | 1013.8 |
| 20260905022118 | 21 | 234 | 1.6 | 3.2 | 0.00 | 1.45 | 1.45 | 91 | 1014.0 |
| 20260905022103 | 21 | 229 | 1.6 | 3.2 | 0.00 | 1.45 | 1.45 | 91 | 1014.0 |
| 20260905022003 | 21 | 219 | 0.0 | 3.2 | 0.00 | 1.45 | 1.45 | 91 | 1013.7 |
| 20260905021803 | 21 | 228 | 0.0 | 3.2 | 0.00 | 1.45 | 1.45 | 91 | 1013.8 |
| 20260905021703 | 21 | 222 | 0.0 | 3.2 | 0.00 | 1.45 | 1.45 | 90 | 1013.9 |
| 20260905021603 | 21 | 263 | 0.0 | 3.2 | 0.00 | 1.45 | 1.45 | 90 | 1013.7 |
| 20260905021517 | 21 | 251 | 1.6 | 3.2 | 0.00 | 1.45 | 1.45 | 90 | 1013.8 |
| 20260905021503 | 21 | 258 | 1.6 | 3.2 | 0.00 | 1.45 | 1.45 | 90 | 1013.8 |
| 20260905021403 | 21 | 265 | 1.6 | 3.2 | 0.00 | 1.45 | 1.45 | 90 | 1013.8 |
| 20260905021317 | 21 | 263 | 0.0 | 3.2 | 0.00 | 1.45 | 1.45 | 90 | 1013.7 |
| 20260905021217 | 21 | 233 | 0.0 | 3.2 | 0.00 | 1.45 | 1.45 | 91 | 1013.5 |
| 20260905021203 | 21 | 228 | 0.0 | 3.2 | 0.00 | 1.45 | 1.45 | 90 | 1013.5 |
| 20260905020903 | 21 | 277 | 0.0 | 3.2 | 0.00 | 1.45 | 1.45 | 90 | 1013.9 |
| 20260905020803 | 21 | 286 | 0.0 | 3.2 | 0.00 | 1.45 | 1.45 | 90 | 1013.4 |
| 20260905020603 | 21 | 201 | 0.0 | 3.2 | 0.00 | 1.45 | 1.45 | 90 | 1013.8 |
| 20260905020503 | 21 | 201 | 0.0 | 3.2 | 0.00 | 1.45 | 1.45 | 90 | 1013.6 |
| 20260905020403 | 22 | 208 | 0.0 | 3.2 | 0.00 | 1.45 | 1.45 | 90 | 1013.8 |
| 20260905020303 | 22 | 201 | 0.0 | 3.2 | 0.00 | 1.45 | 1.45 | 90 | 1013.6 |
| 20260905020203 | 22 | 148 | 0.0 | 3.2 | 0.00 | 1.45 | 1.45 | 90 | 1013.8 |
| 20260905020103 | 22 | 146 | 0.0 | 3.2 | 0.00 | 1.45 | 1.45 | 90 | 1013.8 |
| 20260905020003 | 22 | 142 | 0.0 | 3.2 | 0.00 | 1.45 | 1.45 | 90 | 1013.9 |
| 20260905015903 | 22 | 0 | 0.0 | 3.2 | 0.00 | 1.45 | 1.45 | 89 | 1013.7 |
| 20260905015803 | 22 | 0 | 0.0 | 3.2 | 0.00 | 1.45 | 1.45 | 89 | 1013.8 |
| 20260905015703 | 22 | 306 | 0.0 | 8.0 | 0.00 | 1.45 | 1.45 | 89 | 1013.7 |
| 20260905015603 | 22 | 267 | 0.0 | 8.0 | 0.00 | 1.45 | 1.45 | 89 | 1013.6 |
| 20260905015503 | 22 | 230 | 0.0 | 8.0 | 0.00 | 1.45 | 1.45 | 90 | 1013.9 |
| 20260905015403 | 22 | 230 | 1.6 | 8.0 | 0.00 | 1.45 | 1.45 | 90 | 1013.6 |
| 20260905015306 | 22 | 233 | 1.6 | 8.0 | 0.00 | 1.45 | 1.45 | 90 | 1013.8 |
| 20260905015203 | 22 | 291 | 1.6 | 8.0 | 0.00 | 1.45 | 1.45 | 90 | 1013.7 |
| 20260905015103 | 22 | 239 | 0.0 | 3.2 | 0.00 | 1.45 | 1.45 | 90 | 1013.9 |
| 20260905015003 | 22 | 259 | 0.0 | 3.2 | 0.00 | 1.45 | 1.45 | 90 | 1013.9 |
| 20260905014917 | 22 | 267 | 0.0 | 3.2 | 0.00 | 1.45 | 1.45 | 90 | 1013.9 |
| 20260905014903 | 22 | 214 | 0.0 | 3.2 | 0.00 | 1.45 | 1.45 | 90 | 1013.9 |
| 20260905014803 | 22 | 214 | 0.0 | 3.2 | 0.00 | 1.45 | 1.45 | 90 | 1013.8 |
| 20260905014603 | 22 | 240 | 1.6 | 3.2 | 0.00 | 1.45 | 1.45 | 89 | 1013.8 |
| 20260905014503 | 22 | 218 | 1.6 | 3.2 | 0.00 | 1.45 | 1.45 | 89 | 1013.8 |
| 20260905014403 | 22 | 227 | 1.6 | 3.2 | 0.00 | 1.45 | 1.45 | 89 | 1013.9 |
| 20260905014303 | 22 | 263 | 0.0 | 3.2 | 0.00 | 1.45 | 1.45 | 89 | 1013.8 |
| 20260905014203 | 22 | 267 | 0.0 | 4.8 | 0.00 | 1.45 | 1.45 | 89 | 1013.6 |
| 20260905014103 | 22 | 0 | 0.0 | 4.8 | 0.00 | 1.45 | 1.45 | 89 | 1013.7 |
| 20260905014003 | 22 | 333 | 1.6 | 4.8 | 0.00 | 1.45 | 1.45 | 89 | 1013.6 |
| 20260905013916 | 22 | 333 | 1.6 | 4.8 | 0.00 | 1.45 | 1.45 | 89 | 1013.6 |
| 20260905013903 | 22 | 320 | 1.6 | 4.8 | 0.00 | 1.45 | 1.45 | 89 | 1013.6 |
| 20260905013803 | 22 | 246 | 1.6 | 6.4 | 0.00 | 1.45 | 1.45 | 89 | 1013.8 |
| 20260905013603 | 22 | 216 | 1.6 | 6.4 | 0.00 | 1.45 | 1.45 | 89 | 1013.7 |
| 20260905013503 | 22 | 247 | 1.6 | 6.4 | 0.00 | 1.45 | 1.45 | 88 | 1013.4 |
| 20260905013403 | 22 | 250 | 3.2 | 6.4 | 0.00 | 1.45 | 1.45 | 89 | 1013.6 |
| 20260905013303 | 22 | 273 | 1.6 | 6.4 | 0.00 | 1.45 | 1.45 | 89 | 1013.7 |
| 20260905013203 | 22 | 297 | 1.6 | 3.2 | 0.00 | 1.45 | 1.45 | 89 | 1013.7 |
| 20260905013103 | 22 | 307 | 0.0 | 3.2 | 0.00 | 1.45 | 1.45 | 89 | 1013.6 |
| 20260905013003 | 22 | 259 | 0.0 | 3.2 | 0.00 | 1.45 | 1.45 | 90 | 1013.6 |
| 20260905012916 | 22 | 276 | 0.0 | 3.2 | 0.00 | 1.45 | 1.45 | 90 | 1013.6 |
| 20260905012903 | 22 | 269 | 0.0 | 3.2 | 0.00 | 1.45 | 1.45 | 90 | 1013.6 |
| 20260905012803 | 22 | 257 | 0.0 | 3.2 | 0.00 | 1.45 | 1.45 | 90 | 1013.6 |
| 20260905012603 | 22 | 0 | 0.0 | 0.0 | 0.00 | 1.45 | 1.45 | 89 | 1013.7 |
| 20260905012503 | 22 | 0 | 0.0 | 0.0 | 0.00 | 1.45 | 1.45 | 90 | 1013.8 |
| 20260905012403 | 22 | 0 | 0.0 | 3.2 | 0.00 | 1.45 | 1.45 | 89 | 1013.7 |
| 20260905012203 | 22 | 252 | 0.0 | 3.2 | 0.00 | 1.45 | 1.45 | 89 | 1013.5 |
| 20260905012103 | 22 | 252 | 0.0 | 3.2 | 0.00 | 1.45 | 1.45 | 89 | 1013.6 |
| 20260905012003 | 22 | 250 | 0.0 | 3.2 | 0.00 | 1.45 | 1.45 | 89 | 1013.6 |
| 20260905011903 | 22 | 231 | 0.0 | 3.2 | 0.00 | 1.45 | 1.45 | 88 | 1013.6 |
| 20260905011803 | 22 | 237 | 0.0 | 3.2 | 0.00 | 1.45 | 1.45 | 88 | 1013.5 |
| 20260905011703 | 22 | 235 | 1.6 | 3.2 | 0.00 | 1.45 | 1.45 | 88 | 1013.6 |
| 20260905011603 | 22 | 248 | 1.6 | 3.2 | 0.00 | 1.45 | 1.45 | 88 | 1013.5 |
| 20260905011503 | 22 | 244 | 1.6 | 3.2 | 0.00 | 1.45 | 1.45 | 88 | 1013.5 |
| 20260905011403 | 22 | 253 | 0.0 | 3.2 | 0.00 | 1.45 | 1.45 | 88 | 1013.6 |
| 20260905011303 | 22 | 275 | 0.0 | 3.2 | 0.00 | 1.45 | 1.45 | 88 | 1013.6 |
| 20260905011203 | 22 | 287 | 1.6 | 3.2 | 0.00 | 1.45 | 1.45 | 88 | 1013.5 |
| 20260905011103 | 22 | 297 | 1.6 | 3.2 | 0.00 | 1.45 | 1.45 | 88 | 1013.5 |
| 20260905011018 | 22 | 301 | 0.0 | 3.2 | 0.00 | 1.45 | 1.45 | 88 | 1013.5 |
| 20260905011003 | 22 | 267 | 0.0 | 3.2 | 0.00 | 1.45 | 1.45 | 88 | 1013.5 |
| 20260905010903 | 22 | 289 | 0.0 | 3.2 | 0.00 | 1.45 | 1.45 | 88 | 1013.4 |
| 20260905010703 | 22 | 329 | 0.0 | 3.2 | 0.00 | 1.45 | 1.45 | 88 | 1013.6 |
| 20260905010603 | 22 | 341 | 0.0 | 3.2 | 0.00 | 1.45 | 1.45 | 88 | 1013.6 |
| 20260905010517 | 22 | 349 | 0.0 | 3.2 | 0.00 | 1.47 | 1.45 | 88 | 1013.4 |
| 20260905010503 | 22 | 346 | 0.0 | 3.2 | 0.00 | 1.47 | 1.45 | 88 | 1013.4 |
| 20260905010403 | 22 | 0 | 0.0 | 3.2 | 0.00 | 1.47 | 1.45 | 88 | 1013.3 |
| 20260905010203 | 22 | 258 | 0.0 | 3.2 | 0.00 | 1.47 | 1.45 | 88 | 1013.6 |
| 20260905010103 | 22 | 183 | 0.0 | 3.2 | 0.00 | 1.47 | 1.45 | 88 | 1013.5 |
| 20260905010003 | 22 | 179 | 0.0 | 3.2 | 0.00 | 1.50 | 1.45 | 88 | 1013.2 |
| 20260905005903 | 22 | 220 | 0.0 | 3.2 | 0.00 | 1.50 | 1.45 | 88 | 1013.6 |
| 20260905005803 | 22 | 219 | 0.0 | 3.2 | 0.00 | 1.50 | 1.45 | 88 | 1013.5 |
| 20260905005603 | 22 | 286 | 0.0 | 3.2 | 0.00 | 1.50 | 1.45 | 88 | 1013.5 |
| 20260905005503 | 22 | 0 | 0.0 | 3.2 | 0.00 | 1.50 | 1.45 | 87 | 1013.7 |
| 20260905005403 | 22 | 0 | 0.0 | 3.2 | 0.00 | 1.50 | 1.45 | 87 | 1013.5 |
| 20260905005306 | 22 | 209 | 0.0 | 3.2 | 0.00 | 1.50 | 1.45 | 87 | 1013.5 |
| 20260905005203 | 22 | 209 | 0.0 | 3.2 | 0.00 | 1.50 | 1.45 | 87 | 1013.6 |
| 20260905005103 | 23 | 233 | 0.0 | 3.2 | 0.00 | 1.52 | 1.45 | 87 | 1013.3 |
| 20260905005003 | 23 | 247 | 0.0 | 3.2 | 0.00 | 1.55 | 1.45 | 86 | 1013.6 |
| 20260905004903 | 23 | 263 | 0.0 | 3.2 | 0.00 | 1.55 | 1.45 | 86 | 1013.4 |
| 20260905004803 | 23 | 250 | 0.0 | 3.2 | 0.00 | 1.55 | 1.45 | 86 | 1013.5 |
| 20260905004703 | 23 | 274 | 0.0 | 3.2 | 0.00 | 1.55 | 1.45 | 86 | 1013.5 |
| 20260905004603 | 23 | 295 | 0.0 | 3.2 | 0.00 | 1.55 | 1.45 | 86 | 1013.5 |
| 20260905004503 | 23 | 305 | 0.0 | 3.2 | 0.00 | 1.55 | 1.45 | 86 | 1013.5 |
| 20260905004403 | 23 | 307 | 1.6 | 3.2 | 0.00 | 1.55 | 1.45 | 86 | 1013.5 |
| 20260905004305 | 23 | 285 | 1.6 | 3.2 | 0.00 | 1.57 | 1.45 | 86 | 1013.4 |
| 20260905004203 | 23 | 288 | 1.6 | 3.2 | 0.00 | 1.57 | 1.45 | 86 | 1013.5 |
| 20260905004103 | 23 | 207 | 1.6 | 3.2 | 0.00 | 1.60 | 1.45 | 86 | 1013.5 |
| 20260905004003 | 23 | 246 | 1.6 | 3.2 | 0.00 | 1.60 | 1.45 | 86 | 1013.4 |
| 20260905003903 | 23 | 321 | 1.6 | 3.2 | 0.00 | 1.63 | 1.45 | 86 | 1013.6 |
| 20260905003803 | 23 | 307 | 0.0 | 3.2 | 0.00 | 1.63 | 1.45 | 86 | 1013.4 |
| 20260905003703 | 23 | 323 | 0.0 | 4.8 | 0.00 | 1.63 | 1.45 | 86 | 1013.6 |
| 20260905003603 | 23 | 291 | 0.0 | 4.8 | 0.00 | 1.65 | 1.45 | 86 | 1013.5 |
| 20260905003503 | 23 | 244 | 0.0 | 4.8 | 0.00 | 1.68 | 1.45 | 86 | 1013.7 |
| 20260905003403 | 23 | 267 | 1.6 | 4.8 | 0.00 | 1.70 | 1.45 | 86 | 1013.7 |
| 20260905003303 | 23 | 297 | 1.6 | 4.8 | 0.00 | 1.73 | 1.45 | 86 | 1013.7 |
| 20260905003216 | 23 | 253 | 0.0 | 3.2 | 0.00 | 1.75 | 1.45 | 86 | 1013.5 |
| 20260905003203 | 23 | 250 | 0.0 | 3.2 | 0.00 | 1.75 | 1.45 | 86 | 1013.5 |
| 20260905003103 | 23 | 232 | 0.0 | 3.2 | 0.00 | 1.75 | 1.45 | 86 | 1013.6 |
| 20260905002903 | 23 | 231 | 0.0 | 3.2 | 0.00 | 1.83 | 1.45 | 86 | 1013.7 |
| 20260905002803 | 23 | 244 | 0.0 | 3.2 | 0.00 | 1.85 | 1.45 | 86 | 1013.7 |
| 20260905002703 | 23 | 0 | 0.0 | 0.0 | 0.00 | 1.91 | 1.45 | 86 | 1013.7 |
| 20260905002603 | 23 | 0 | 0.0 | 0.0 | 0.00 | 1.93 | 1.45 | 86 | 1013.6 |
| 20260905002503 | 23 | 0 | 0.0 | 3.2 | 0.00 | 1.98 | 1.45 | 86 | 1013.5 |
| 20260905002403 | 23 | 0 | 0.0 | 3.2 | 0.00 | 2.11 | 1.45 | 86 | 1013.7 |
| 20260905002203 | 23 | 140 | 0.0 | 3.2 | 0.00 | 2.24 | 1.45 | 86 | 1013.5 |
| 20260905002103 | 23 | 217 | 0.0 | 3.2 | 0.00 | 2.29 | 1.45 | 86 | 1013.6 |
| 20260905002003 | 23 | 234 | 0.0 | 3.2 | 0.00 | 2.39 | 1.45 | 85 | 1013.5 |
| 20260905001903 | 23 | 214 | 0.0 | 3.2 | 0.00 | 2.44 | 1.45 | 85 | 1013.5 |
| 20260905001803 | 23 | 244 | 0.0 | 3.2 | 0.00 | 2.46 | 1.45 | 86 | 1013.4 |
| 20260905001717 | 23 | 325 | 0.0 | 3.2 | 0.00 | 2.51 | 1.45 | 85 | 1013.7 |
| 20260905001703 | 23 | 349 | 0.0 | 3.2 | 0.00 | 2.51 | 1.45 | 85 | 1013.7 |
| 20260905001603 | 23 | 349 | 0.0 | 4.8 | 0.00 | 2.57 | 1.45 | 85 | 1013.4 |
| 20260905001403 | 23 | 12 | 0.0 | 8.0 | 0.00 | 2.59 | 1.45 | 85 | 1013.6 |
| 20260905001304 | 23 | 11 | 1.6 | 8.0 | 0.00 | 2.59 | 1.45 | 85 | 1013.5 |
| 20260905001203 | 23 | 339 | 3.2 | 8.0 | 0.00 | 2.59 | 1.45 | 84 | 1013.7 |
| 20260905001117 | 23 | 318 | 3.2 | 8.0 | 0.00 | 2.59 | 1.45 | 84 | 1013.6 |
| 20260905001103 | 23 | 336 | 3.2 | 8.0 | 0.00 | 2.59 | 1.45 | 84 | 1013.6 |
| 20260905001003 | 23 | 328 | 3.2 | 8.0 | 0.00 | 2.59 | 1.45 | 84 | 1013.7 |
| 20260905000918 | 23 | 307 | 1.6 | 6.4 | 0.00 | 2.59 | 1.45 | 84 | 1013.6 |
| 20260905000803 | 23 | 254 | 0.0 | 8.0 | 0.00 | 2.59 | 1.45 | 84 | 1013.4 |
| 20260905000717 | 23 | 271 | 0.0 | 8.0 | 0.00 | 2.59 | 1.45 | 84 | 1013.6 |
| 20260905000603 | 23 | 293 | 3.2 | 8.0 | 0.00 | 2.59 | 1.45 | 84 | 1013.6 |
| 20260905000417 | 23 | 293 | 4.8 | 9.7 | 0.00 | 2.59 | 1.45 | 83 | 1013.6 |
| 20260905000403 | 23 | 291 | 4.8 | 9.7 | 0.00 | 2.59 | 1.45 | 83 | 1013.6 |
| 20260905000303 | 23 | 319 | 4.8 | 9.7 | 0.00 | 2.59 | 1.45 | 83 | 1013.8 |
| 20260905000003 | 23 | 299 | 1.6 | 8.0 | 0.00 | 2.59 | 1.45 | 83 | 1013.4 |
| 20260904235903 | 23 | 342 | 0.0 | 4.8 | 0.00 | 2.59 | 1.45 | 84 | 1013.5 |
| 20260904235803 | 23 | 292 | 0.0 | 11.3 | 0.00 | 2.59 | 1.45 | 84 | 1013.5 |
| 20260904235703 | 23 | 244 | 1.6 | 11.3 | 0.00 | 2.59 | 1.45 | 83 | 1013.5 |
| 20260904235603 | 23 | 272 | 3.2 | 11.3 | 0.00 | 2.59 | 1.45 | 83 | 1013.4 |
| 20260904235503 | 23 | 282 | 4.8 | 11.3 | 0.00 | 2.59 | 1.45 | 82 | 1013.4 |
| 20260904235403 | 23 | 302 | 6.4 | 11.3 | 0.00 | 2.59 | 1.45 | 82 | 1013.4 |
| 20260904235306 | 24 | 303 | 4.8 | 11.3 | 0.00 | 2.59 | 1.45 | 83 | 1013.6 |
| 20260904235203 | 24 | 267 | 3.2 | 11.3 | 0.00 | 2.59 | 1.45 | 82 | 1013.5 |
| 20260904235017 | 24 | 280 | 6.4 | 11.3 | 0.00 | 2.59 | 1.45 | 82 | 1013.5 |
| 20260904235003 | 24 | 286 | 6.4 | 11.3 | 0.00 | 2.59 | 1.45 | 82 | 1013.5 |
| 20260904234903 | 24 | 303 | 6.4 | 11.3 | 0.00 | 2.59 | 1.45 | 82 | 1013.6 |
| 20260904234703 | 24 | 267 | 4.8 | 8.0 | 0.00 | 2.59 | 1.45 | 83 | 1013.5 |
| 20260904234618 | 24 | 290 | 4.8 | 8.0 | 0.00 | 2.59 | 1.45 | 83 | 1013.5 |
| 20260904234603 | 24 | 299 | 4.8 | 8.0 | 0.00 | 2.59 | 1.45 | 82 | 1013.5 |
| 20260904234503 | 24 | 289 | 4.8 | 8.0 | 0.00 | 2.59 | 1.45 | 82 | 1013.4 |
| 20260904234417 | 24 | 286 | 3.2 | 6.4 | 0.00 | 2.59 | 1.45 | 83 | 1013.5 |
| 20260904234318 | 24 | 280 | 1.6 | 3.2 | 0.00 | 2.59 | 1.45 | 84 | 1013.4 |
| 20260904234303 | 24 | 277 | 1.6 | 3.2 | 0.00 | 2.59 | 1.45 | 84 | 1013.4 |
| 20260904234218 | 24 | 260 | 1.6 | 3.2 | 0.00 | 2.59 | 1.45 | 83 | 1013.5 |
| 20260904234117 | 24 | 30 | 0.0 | 4.8 | 0.00 | 2.59 | 1.45 | 84 | 1013.5 |
| 20260904233803 | 24 | 321 | 0.0 | 4.8 | 0.00 | 2.59 | 1.45 | 83 | 1013.6 |
| 20260904233703 | 24 | 266 | 0.0 | 4.8 | 0.00 | 2.59 | 1.45 | 83 | 1013.4 |
| 20260904233603 | 24 | 224 | 1.6 | 4.8 | 0.00 | 2.59 | 1.45 | 83 | 1013.5 |
| 20260904233503 | 24 | 267 | 1.6 | 4.8 | 0.00 | 2.59 | 1.45 | 83 | 1013.2 |
| 20260904233403 | 24 | 305 | 1.6 | 4.8 | 0.00 | 2.59 | 1.45 | 82 | 1013.4 |
| 20260904233303 | 24 | 300 | 0.0 | 4.8 | 0.00 | 2.59 | 1.45 | 83 | 1013.5 |
| 20260904233203 | 24 | 0 | 0.0 | 4.8 | 0.00 | 2.59 | 1.45 | 82 | 1013.2 |
| 20260904233103 | 24 | 225 | 0.0 | 4.8 | 0.00 | 2.59 | 1.45 | 82 | 1013.4 |
| 20260904233003 | 24 | 227 | 0.0 | 4.8 | 0.00 | 2.59 | 1.45 | 82 | 1013.5 |
| 20260904232903 | 24 | 282 | 0.0 | 4.8 | 0.00 | 2.59 | 1.45 | 82 | 1013.3 |
| 20260904232803 | 24 | 284 | 1.6 | 4.8 | 0.00 | 2.59 | 1.45 | 82 | 1013.3 |
| 20260904232703 | 24 | 297 | 1.6 | 4.8 | 0.00 | 2.59 | 1.45 | 82 | 1013.5 |
| 20260904232603 | 24 | 298 | 0.0 | 3.2 | 0.00 | 2.62 | 1.45 | 82 | 1013.5 |
| 20260904232503 | 24 | 309 | 0.0 | 3.2 | 0.00 | 2.64 | 1.45 | 82 | 1013.5 |
| 20260904232403 | 24 | 295 | 0.0 | 3.2 | 0.00 | 2.67 | 1.45 | 82 | 1013.4 |
| 20260904232203 | 24 | 324 | 0.0 | 3.2 | 0.00 | 2.72 | 1.45 | 82 | 1013.5 |
| 20260904232103 | 24 | 298 | 0.0 | 3.2 | 0.00 | 2.72 | 1.45 | 83 | 1013.5 |
| 20260904232017 | 24 | 334 | 0.0 | 3.2 | 0.00 | 2.72 | 1.45 | 83 | 1013.5 |
| 20260904232003 | 24 | 6 | 0.0 | 3.2 | 0.00 | 2.72 | 1.45 | 82 | 1013.5 |
| 20260904231903 | 24 | 0 | 0.0 | 3.2 | 0.00 | 2.72 | 1.45 | 82 | 1013.3 |
| 20260904231703 | 24 | 254 | 0.0 | 3.2 | 0.00 | 2.72 | 1.45 | 82 | 1013.5 |
| 20260904231603 | 25 | 269 | 0.0 | 3.2 | 0.00 | 2.72 | 1.45 | 81 | 1013.5 |
| 20260904231503 | 25 | 251 | 0.0 | 3.2 | 0.00 | 2.72 | 1.45 | 82 | 1013.3 |
| 20260904231403 | 25 | 247 | 0.0 | 3.2 | 0.00 | 2.72 | 1.45 | 82 | 1013.5 |
| 20260904231317 | 25 | 238 | 0.0 | 3.2 | 0.00 | 2.72 | 1.45 | 81 | 1013.3 |
| 20260904231303 | 25 | 236 | 0.0 | 3.2 | 0.00 | 2.72 | 1.45 | 82 | 1013.3 |
| 20260904231203 | 25 | 239 | 0.0 | 3.2 | 0.00 | 2.72 | 1.45 | 82 | 1013.6 |
| 20260904231003 | 25 | 320 | 0.0 | 3.2 | 0.00 | 2.72 | 1.45 | 82 | 1013.4 |
| 20260904230903 | 25 | 288 | 0.0 | 3.2 | 0.00 | 2.72 | 1.45 | 81 | 1013.5 |
| 20260904230803 | 25 | 252 | 0.0 | 3.2 | 0.00 | 2.72 | 1.45 | 81 | 1013.2 |
| 20260904230703 | 25 | 238 | 0.0 | 3.2 | 0.00 | 2.72 | 1.45 | 81 | 1013.1 |
| 20260904230603 | 25 | 227 | 0.0 | 4.8 | 0.00 | 2.72 | 1.45 | 81 | 1013.2 |
| 20260904230503 | 25 | 273 | 0.0 | 4.8 | 0.00 | 2.74 | 1.45 | 80 | 1013.3 |
| 20260904230403 | 25 | 265 | 1.6 | 4.8 | 0.00 | 2.74 | 1.45 | 80 | 1013.3 |
| 20260904230317 | 25 | 282 | 1.6 | 4.8 | 0.00 | 2.74 | 1.45 | 79 | 1013.2 |
| 20260904230303 | 25 | 294 | 1.6 | 4.8 | 0.00 | 2.74 | 1.45 | 78 | 1013.2 |
| 20260904230203 | 25 | 286 | 1.6 | 4.8 | 0.00 | 2.74 | 1.45 | 78 | 1013.3 |
| 20260904230017 | 25 | 295 | 1.6 | 4.8 | 0.00 | 2.74 | 1.45 | 78 | 1013.2 |
| 20260904230003 | 25 | 4 | 0.0 | 4.8 | 0.00 | 2.74 | 1.45 | 79 | 1013.2 |
| 20260904225903 | 25 | 78 | 0.0 | 4.8 | 0.00 | 2.74 | 1.45 | 78 | 1013.2 |
| 20260904225703 | 25 | 323 | 1.6 | 4.8 | 0.00 | 2.74 | 1.45 | 78 | 1013.3 |
| 20260904225603 | 25 | 305 | 1.6 | 4.8 | 0.00 | 2.74 | 1.45 | 79 | 1013.1 |
| 20260904225503 | 25 | 309 | 0.0 | 3.2 | 0.00 | 2.74 | 1.45 | 78 | 1013.3 |
| 20260904225403 | 25 | 285 | 1.6 | 3.2 | 0.00 | 2.77 | 1.45 | 78 | 1013.3 |
| 20260904225305 | 25 | 298 | 1.6 | 3.2 | 0.00 | 2.77 | 1.45 | 77 | 1013.3 |
| 20260904225103 | 25 | 316 | 0.0 | 3.2 | 0.00 | 2.77 | 1.45 | 78 | 1013.4 |
| 20260904225003 | 25 | 0 | 0.0 | 0.0 | 0.00 | 2.77 | 1.45 | 78 | 1013.2 |
| 20260904224903 | 25 | 0 | 0.0 | 0.0 | 0.00 | 2.77 | 1.45 | 78 | 1013.2 |
| 20260904224803 | 25 | 0 | 0.0 | 0.0 | 0.00 | 2.79 | 1.45 | 79 | 1013.2 |
| 20260904224703 | 25 | 0 | 0.0 | 3.2 | 0.00 | 2.79 | 1.45 | 78 | 1013.3 |
| 20260904224603 | 25 | 0 | 0.0 | 3.2 | 0.00 | 2.82 | 1.45 | 77 | 1013.2 |
| 20260904224503 | 25 | 323 | 0.0 | 3.2 | 0.00 | 2.82 | 1.45 | 77 | 1013.2 |
| 20260904224403 | 25 | 323 | 0.0 | 3.2 | 0.00 | 2.82 | 1.45 | 77 | 1013.3 |
| 20260904224303 | 25 | 298 | 0.0 | 3.2 | 0.00 | 2.84 | 1.45 | 77 | 1013.3 |
| 20260904224203 | 25 | 283 | 0.0 | 4.8 | 0.00 | 2.87 | 1.45 | 78 | 1013.2 |
| 20260904224103 | 25 | 279 | 0.0 | 4.8 | 0.00 | 2.87 | 1.45 | 77 | 1013.4 |
| 20260904224003 | 25 | 315 | 0.0 | 4.8 | 0.00 | 2.87 | 1.45 | 77 | 1013.2 |
| 20260904223903 | 25 | 304 | 1.6 | 4.8 | 0.00 | 2.87 | 1.45 | 76 | 1013.3 |
| 20260904223803 | 25 | 303 | 3.2 | 4.8 | 0.00 | 2.87 | 1.45 | 76 | 1013.4 |
| 20260904223703 | 26 | 304 | 1.6 | 4.8 | 0.00 | 2.87 | 1.45 | 76 | 1013.3 |
| 20260904223617 | 26 | 307 | 1.6 | 4.8 | 0.00 | 2.90 | 1.45 | 75 | 1013.4 |
| 20260904223603 | 26 | 309 | 1.6 | 3.2 | 0.00 | 2.90 | 1.45 | 75 | 1013.4 |
| 20260904223303 | 26 | 311 | 0.0 | 3.2 | 0.00 | 2.92 | 1.45 | 74 | 1013.4 |
| 20260904223203 | 26 | 295 | 0.0 | 3.2 | 0.00 | 2.92 | 1.45 | 75 | 1013.3 |
| 20260904223103 | 26 | 299 | 0.0 | 3.2 | 0.00 | 2.92 | 1.45 | 75 | 1013.3 |
| 20260904223003 | 26 | 298 | 0.0 | 3.2 | 0.00 | 2.92 | 1.45 | 75 | 1013.3 |
| 20260904222917 | 26 | 284 | 0.0 | 3.2 | 0.00 | 2.92 | 1.45 | 74 | 1013.3 |
| 20260904222903 | 26 | 281 | 1.6 | 3.2 | 0.00 | 2.92 | 1.45 | 74 | 1013.3 |
| 20260904222603 | 26 | 291 | 0.0 | 3.2 | 0.00 | 2.95 | 1.45 | 72 | 1013.2 |
| 20260904222503 | 26 | 302 | 1.6 | 3.2 | 0.00 | 2.95 | 1.45 | 72 | 1013.2 |
| 20260904222416 | 26 | 289 | 1.6 | 3.2 | 0.00 | 2.95 | 1.45 | 72 | 1013.1 |
| 20260904222403 | 26 | 295 | 1.6 | 3.2 | 0.00 | 2.95 | 1.45 | 72 | 1013.1 |
| 20260904222306 | 26 | 313 | 1.6 | 3.2 | 0.00 | 2.95 | 1.45 | 72 | 1013.0 |
| 20260904222103 | 26 | 324 | 0.0 | 3.2 | 0.00 | 3.00 | 1.45 | 72 | 1013.3 |
| 20260904222003 | 26 | 344 | 0.0 | 3.2 | 0.00 | 3.00 | 1.45 | 72 | 1012.9 |
| 20260904221903 | 26 | 0 | 0.0 | 3.2 | 0.00 | 3.05 | 1.45 | 72 | 1013.2 |
| 20260904221803 | 26 | 259 | 0.0 | 3.2 | 0.00 | 3.05 | 1.45 | 71 | 1012.9 |
| 20260904221603 | 26 | 331 | 0.0 | 3.2 | 0.00 | 3.07 | 1.45 | 72 | 1013.2 |
| 20260904221503 | 26 | 317 | 0.0 | 3.2 | 0.00 | 3.10 | 1.45 | 71 | 1013.1 |
| 20260904221403 | 26 | 276 | 0.0 | 3.2 | 0.00 | 3.12 | 1.45 | 72 | 1013.1 |
| 20260904221317 | 26 | 238 | 0.0 | 3.2 | 0.00 | 3.12 | 1.45 | 71 | 1013.0 |
| 20260904221218 | 26 | 237 | 0.0 | 3.2 | 0.00 | 3.12 | 1.45 | 71 | 1013.1 |
| 20260904221203 | 26 | 238 | 0.0 | 6.4 | 0.00 | 3.12 | 1.45 | 71 | 1013.1 |
| 20260904220903 | 26 | 247 | 1.6 | 9.7 | 0.00 | 3.25 | 1.45 | 70 | 1013.3 |
| 20260904220803 | 26 | 315 | 4.8 | 9.7 | 0.00 | 3.33 | 1.45 | 70 | 1013.1 |
| 20260904220703 | 26 | 312 | 4.8 | 9.7 | 0.00 | 3.40 | 1.45 | 68 | 1013.0 |
| 20260904220603 | 26 | 305 | 3.2 | 8.0 | 0.00 | 3.48 | 1.45 | 68 | 1013.0 |
| 20260904220503 | 26 | 35 | 1.6 | 9.7 | 0.00 | 3.53 | 1.45 | 69 | 1013.3 |
| 20260904220403 | 27 | 247 | 0.0 | 9.7 | 0.00 | 3.61 | 1.45 | 67 | 1013.1 |
| 20260904220303 | 27 | 211 | 3.2 | 9.7 | 0.00 | 3.71 | 1.45 | 68 | 1012.9 |
| 20260904220218 | 27 | 245 | 4.8 | 9.7 | 0.00 | 3.86 | 1.45 | 67 | 1013.1 |
| 20260904220203 | 27 | 274 | 6.4 | 9.7 | 0.00 | 3.86 | 1.45 | 67 | 1013.1 |
| 20260904220017 | 27 | 316 | 3.2 | 6.4 | 0.00 | 4.09 | 1.45 | 67 | 1013.0 |
| 20260904215903 | 27 | 287 | 3.2 | 6.4 | 0.00 | 4.17 | 1.45 | 67 | 1013.0 |
| 20260904215818 | 27 | 261 | 3.2 | 8.0 | 0.00 | 4.24 | 1.45 | 66 | 1012.7 |
| 20260904215703 | 27 | 224 | 3.2 | 8.0 | 0.00 | 4.32 | 1.45 | 65 | 1012.7 |
| 20260904215503 | 27 | 340 | 3.2 | 8.0 | 0.00 | 4.39 | 1.45 | 67 | 1013.0 |
| 20260904215416 | 27 | 272 | 3.2 | 8.0 | 0.00 | 4.45 | 1.45 | 66 | 1013.0 |
| 20260904215403 | 27 | 241 | 3.2 | 9.7 | 0.00 | 4.45 | 1.45 | 67 | 1013.0 |
| 20260904215305 | 27 | 271 | 1.6 | 9.7 | 0.00 | 4.55 | 1.45 | 68 | 1013.1 |
| 20260904215103 | 26 | 232 | 4.8 | 11.3 | 0.00 | 4.65 | 1.45 | 68 | 1013.2 |
| 20260904215003 | 26 | 277 | 6.4 | 12.9 | 0.00 | 4.65 | 1.45 | 67 | 1013.1 |
| 20260904214903 | 26 | 234 | 4.8 | 12.9 | 0.00 | 4.65 | 1.45 | 67 | 1013.0 |
| 20260904214803 | 26 | 287 | 4.8 | 12.9 | 0.00 | 4.65 | 1.45 | 69 | 1013.1 |
| 20260904214716 | 26 | 290 | 6.4 | 12.9 | 0.00 | 4.65 | 1.45 | 68 | 1013.0 |
| 20260904214703 | 27 | 281 | 6.4 | 12.9 | 0.00 | 4.65 | 1.45 | 68 | 1013.0 |
| 20260904214603 | 27 | 259 | 4.8 | 12.9 | 0.00 | 4.65 | 1.45 | 69 | 1013.1 |
| 20260904214403 | 27 | 224 | 4.8 | 9.7 | 0.00 | 4.65 | 1.45 | 69 | 1013.0 |
| 20260904214303 | 27 | 203 | 4.8 | 9.7 | 0.00 | 4.65 | 1.45 | 69 | 1013.2 |
| 20260904214203 | 27 | 136 | 4.8 | 9.7 | 0.00 | 4.65 | 1.45 | 69 | 1013.2 |
| 20260904214103 | 27 | 348 | 3.2 | 6.4 | 0.00 | 4.65 | 1.45 | 70 | 1013.2 |
| 20260904214017 | 27 | 217 | 1.6 | 12.9 | 0.00 | 4.65 | 1.45 | 70 | 1013.1 |
| 20260904214003 | 26 | 232 | 1.6 | 12.9 | 0.00 | 4.65 | 1.45 | 70 | 1013.1 |
| 20260904213903 | 26 | 231 | 0.0 | 12.9 | 0.00 | 4.65 | 1.45 | 71 | 1013.2 |
| 20260904213703 | 26 | 201 | 4.8 | 12.9 | 0.00 | 4.65 | 1.45 | 70 | 1012.9 |
| 20260904213603 | 26 | 179 | 4.8 | 12.9 | 0.00 | 4.65 | 1.45 | 70 | 1013.3 |
| 20260904213503 | 26 | 329 | 3.2 | 11.3 | 0.00 | 4.65 | 1.45 | 70 | 1013.1 |
| 20260904213403 | 26 | 176 | 4.8 | 11.3 | 0.00 | 4.65 | 1.45 | 70 | 1013.2 |
| 20260904213303 | 26 | 246 | 4.8 | 11.3 | 0.00 | 4.65 | 1.45 | 70 | 1013.1 |
| 20260904213203 | 26 | 232 | 1.6 | 12.9 | 0.00 | 4.65 | 1.45 | 71 | 1013.1 |
| 20260904213103 | 26 | 242 | 1.6 | 14.5 | 0.00 | 4.65 | 1.45 | 70 | 1013.3 |
| 20260904213003 | 26 | 272 | 3.2 | 14.5 | 0.00 | 4.65 | 1.45 | 70 | 1013.3 |
| 20260904212903 | 26 | 275 | 6.4 | 14.5 | 0.00 | 4.65 | 1.45 | 69 | 1013.2 |
| 20260904212818 | 26 | 236 | 6.4 | 14.5 | 0.00 | 4.65 | 1.45 | 69 | 1013.2 |
| 20260904212803 | 26 | 238 | 6.4 | 14.5 | 0.00 | 4.65 | 1.45 | 69 | 1013.2 |
| 20260904212703 | 27 | 241 | 3.2 | 14.5 | 0.00 | 4.65 | 1.45 | 69 | 1013.2 |
| 20260904212517 | 27 | 117 | 1.6 | 8.0 | 0.00 | 4.65 | 1.45 | 70 | 1013.2 |
| 20260904212503 | 27 | 93 | 1.6 | 8.0 | 0.00 | 4.65 | 1.45 | 70 | 1013.2 |
| 20260904212403 | 27 | 1 | 1.6 | 8.0 | 0.00 | 4.65 | 1.45 | 70 | 1013.2 |
| 20260904212203 | 27 | 315 | 4.8 | 9.7 | 0.00 | 4.65 | 1.45 | 69 | 1013.1 |
| 20260904212103 | 27 | 328 | 4.8 | 11.3 | 0.00 | 4.65 | 1.45 | 71 | 1013.1 |
| 20260904212003 | 27 | 309 | 4.8 | 11.3 | 0.00 | 4.65 | 1.45 | 70 | 1013.1 |
| 20260904211903 | 27 | 310 | 4.8 | 11.3 | 0.00 | 4.65 | 1.45 | 70 | 1012.9 |
| 20260904211803 | 27 | 308 | 6.4 | 11.3 | 0.00 | 4.65 | 1.45 | 70 | 1013.0 |
| 20260904211703 | 27 | 324 | 6.4 | 11.3 | 0.00 | 4.65 | 1.45 | 68 | 1013.2 |
| 20260904211603 | 27 | 312 | 3.2 | 8.0 | 0.00 | 4.65 | 1.45 | 69 | 1013.0 |
| 20260904211503 | 27 | 327 | 3.2 | 8.0 | 0.00 | 4.65 | 1.45 | 67 | 1012.9 |
| 20260904211403 | 27 | 327 | 3.2 | 8.0 | 0.00 | 4.65 | 1.45 | 67 | 1013.0 |
| 20260904211303 | 27 | 295 | 1.6 | 8.0 | 0.00 | 4.65 | 1.45 | 67 | 1013.1 |
| 20260904211203 | 27 | 299 | 1.6 | 8.0 | 0.00 | 4.65 | 1.45 | 66 | 1013.1 |
| 20260904211118 | 27 | 235 | 0.0 | 3.2 | 0.00 | 4.65 | 1.45 | 68 | 1012.9 |
| 20260904211103 | 27 | 234 | 0.0 | 3.2 | 0.00 | 4.65 | 1.45 | 68 | 1012.9 |
| 20260904211003 | 27 | 122 | 0.0 | 4.8 | 0.00 | 4.65 | 1.45 | 67 | 1013.1 |
| 20260904210803 | 27 | 252 | 0.0 | 4.8 | 0.00 | 4.65 | 1.45 | 68 | 1013.2 |
| 20260904210703 | 27 | 60 | 1.6 | 4.8 | 0.00 | 4.65 | 1.45 | 68 | 1013.2 |
| 20260904210603 | 27 | 107 | 3.2 | 4.8 | 0.00 | 4.65 | 1.45 | 67 | 1012.9 |
| 20260904210503 | 27 | 134 | 1.6 | 16.1 | 0.00 | 4.65 | 1.45 | 67 | 1013.0 |
| 20260904210403 | 27 | 193 | 0.0 | 16.1 | 0.00 | 4.65 | 1.45 | 68 | 1013.0 |
| 20260904210303 | 27 | 229 | 0.0 | 16.1 | 0.00 | 4.65 | 1.45 | 68 | 1013.2 |
| 20260904210203 | 27 | 275 | 3.2 | 16.1 | 0.00 | 4.65 | 1.45 | 69 | 1012.9 |
| 20260904210003 | 27 | 313 | 8.0 | 16.1 | 0.00 | 4.65 | 1.45 | 68 | 1013.0 |
| 20260904205903 | 27 | 315 | 4.8 | 12.9 | 0.00 | 4.65 | 1.45 | 69 | 1013.1 |
| 20260904205803 | 27 | 312 | 6.4 | 12.9 | 0.00 | 4.65 | 1.45 | 69 | 1013.0 |
| 20260904205703 | 27 | 301 | 6.4 | 16.1 | 0.00 | 4.65 | 1.45 | 68 | 1012.9 |
| 20260904205603 | 27 | 303 | 8.0 | 16.1 | 0.00 | 4.65 | 1.45 | 68 | 1013.0 |
| 20260904205503 | 27 | 311 | 9.7 | 16.1 | 0.00 | 4.65 | 1.45 | 67 | 1013.1 |
| 20260904205403 | 27 | 308 | 9.7 | 16.1 | 0.00 | 4.65 | 1.45 | 67 | 1013.3 |
| 20260904205305 | 27 | 299 | 8.0 | 16.1 | 0.00 | 4.65 | 1.45 | 65 | 1013.2 |
| 20260904205203 | 27 | 305 | 6.4 | 16.1 | 0.00 | 4.65 | 1.45 | 67 | 1013.2 |
| 20260904205103 | 27 | 308 | 3.2 | 8.0 | 0.00 | 4.65 | 1.45 | 68 | 1013.1 |
| 20260904205003 | 27 | 290 | 3.2 | 8.0 | 0.00 | 4.65 | 1.45 | 68 | 1013.2 |
| 20260904204903 | 27 | 324 | 3.2 | 9.7 | 0.00 | 4.65 | 1.45 | 70 | 1012.9 |
| 20260904204803 | 27 | 344 | 3.2 | 11.3 | 0.00 | 4.65 | 1.45 | 70 | 1013.0 |
| 20260904204703 | 26 | 341 | 3.2 | 12.9 | 0.00 | 4.65 | 1.45 | 72 | 1013.2 |
| 20260904204603 | 26 | 332 | 6.4 | 12.9 | 0.00 | 4.65 | 1.45 | 71 | 1013.2 |
| 20260904204503 | 26 | 316 | 8.0 | 12.9 | 0.00 | 4.65 | 1.45 | 69 | 1013.4 |
| 20260904204418 | 26 | 301 | 8.0 | 12.9 | 0.00 | 4.65 | 1.45 | 69 | 1013.3 |
| 20260904204403 | 26 | 291 | 8.0 | 12.9 | 0.00 | 4.65 | 1.45 | 69 | 1013.3 |
| 20260904204303 | 26 | 289 | 6.4 | 12.9 | 0.00 | 4.65 | 1.45 | 68 | 1013.4 |
| 20260904204217 | 26 | 312 | 4.8 | 11.3 | 0.00 | 4.65 | 1.45 | 69 | 1013.3 |
| 20260904204103 | 26 | 198 | 3.2 | 16.1 | 0.00 | 4.65 | 1.45 | 71 | 1013.3 |
| 20260904203903 | 26 | 249 | 6.4 | 16.1 | 0.00 | 4.65 | 1.45 | 69 | 1013.4 |
| 20260904203803 | 26 | 253 | 8.0 | 16.1 | 0.00 | 4.65 | 1.45 | 69 | 1013.6 |
| 20260904203703 | 26 | 294 | 6.4 | 16.1 | 0.00 | 4.65 | 1.45 | 68 | 1013.7 |
| 20260904203603 | 26 | 298 | 6.4 | 16.1 | 0.00 | 4.65 | 1.45 | 70 | 1013.6 |
| 20260904203503 | 26 | 292 | 6.4 | 16.1 | 0.00 | 4.65 | 1.45 | 69 | 1013.5 |
| 20260904203403 | 27 | 298 | 8.0 | 16.1 | 0.00 | 4.65 | 1.45 | 68 | 1013.8 |
| 20260904203303 | 27 | 288 | 6.4 | 16.1 | 0.00 | 4.65 | 1.45 | 69 | 1013.7 |
| 20260904203203 | 27 | 304 | 3.2 | 16.1 | 0.00 | 4.65 | 1.45 | 66 | 1013.7 |
| 20260904203003 | 27 | 269 | 4.8 | 14.5 | 0.00 | 4.65 | 1.45 | 70 | 1013.9 |
| 20260904202903 | 27 | 302 | 6.4 | 14.5 | 0.00 | 4.65 | 1.45 | 69 | 1013.8 |
| 20260904202803 | 27 | 286 | 6.4 | 14.5 | 0.00 | 4.65 | 1.45 | 69 | 1013.7 |
| 20260904202703 | 27 | 299 | 8.0 | 14.5 | 0.00 | 4.65 | 1.45 | 69 | 1013.7 |
| 20260904202603 | 27 | 312 | 4.8 | 14.5 | 0.00 | 4.65 | 1.45 | 69 | 1013.6 |
| 20260904202503 | 26 | 317 | 3.2 | 9.7 | 0.00 | 4.65 | 1.45 | 74 | 1013.8 |
| 20260904202403 | 26 | 293 | 3.2 | 9.7 | 0.00 | 4.65 | 1.45 | 73 | 1013.6 |
| 20260904202305 | 26 | 353 | 3.2 | 9.7 | 0.00 | 4.65 | 1.45 | 75 | 1013.6 |
| 20260904202203 | 26 | 15 | 3.2 | 9.7 | 0.00 | 4.65 | 1.45 | 73 | 1013.6 |
| 20260904202103 | 26 | 249 | 4.8 | 9.7 | 0.00 | 4.65 | 1.45 | 73 | 1014.0 |
| 20260904202003 | 26 | 295 | 6.4 | 9.7 | 0.00 | 4.65 | 1.45 | 72 | 1013.8 |
| 20260904201903 | 26 | 308 | 3.2 | 9.7 | 0.00 | 4.65 | 1.45 | 73 | 1013.7 |
| 20260904201803 | 26 | 310 | 1.6 | 9.7 | 0.00 | 4.65 | 1.45 | 74 | 1013.7 |
| 20260904201703 | 26 | 287 | 4.8 | 14.5 | 0.00 | 4.65 | 1.45 | 73 | 1013.9 |
| 20260904201603 | 26 | 293 | 6.4 | 14.5 | 0.00 | 4.65 | 1.45 | 72 | 1013.8 |
| 20260904201503 | 26 | 305 | 8.0 | 14.5 | 0.00 | 4.65 | 1.45 | 72 | 1013.7 |
| 20260904201403 | 26 | 303 | 8.0 | 14.5 | 0.00 | 4.65 | 1.45 | 72 | 1013.7 |
| 20260904201303 | 26 | 301 | 6.4 | 14.5 | 0.00 | 4.65 | 1.45 | 71 | 1013.5 |
| 20260904201203 | 26 | 25 | 1.6 | 11.3 | 0.00 | 4.65 | 1.45 | 72 | 1013.7 |
| 20260904201103 | 26 | 311 | 1.6 | 11.3 | 0.00 | 4.65 | 1.45 | 74 | 1013.6 |
| 20260904201003 | 26 | 273 | 3.2 | 11.3 | 0.00 | 4.65 | 1.45 | 72 | 1013.5 |
| 20260904200903 | 26 | 282 | 6.4 | 11.3 | 0.00 | 4.65 | 1.45 | 71 | 1013.4 |
| 20260904200803 | 26 | 291 | 8.0 | 9.7 | 0.00 | 4.65 | 1.45 | 71 | 1013.4 |
| 20260904200703 | 26 | 304 | 8.0 | 9.7 | 0.00 | 4.65 | 1.45 | 73 | 1013.2 |
| 20260904200603 | 26 | 317 | 6.4 | 9.7 | 0.00 | 4.65 | 1.45 | 73 | 1013.2 |
| 20260904200503 | 26 | 306 | 3.2 | 9.7 | 0.00 | 4.65 | 1.45 | 72 | 1013.3 |
| 20260904200418 | 26 | 344 | 4.8 | 9.7 | 0.00 | 4.65 | 1.45 | 75 | 1013.2 |
| 20260904200403 | 26 | 350 | 4.8 | 9.7 | 0.00 | 4.65 | 1.45 | 76 | 1013.2 |
| 20260904200217 | 26 | 287 | 4.8 | 9.7 | 0.00 | 4.65 | 1.45 | 73 | 1013.3 |
| 20260904200018 | 26 | 316 | 4.8 | 9.7 | 0.00 | 4.65 | 1.45 | 74 | 1013.4 |
| 20260904195903 | 26 | 350 | 3.2 | 8.0 | 0.00 | 4.65 | 1.45 | 74 | 1013.2 |
| 20260904195703 | 26 | 49 | 4.8 | 8.0 | 0.00 | 4.65 | 1.45 | 75 | 1013.1 |
| 20260904195603 | 26 | 62 | 3.2 | 8.0 | 0.00 | 4.65 | 1.45 | 74 | 1013.1 |
| 20260904195503 | 26 | 104 | 3.2 | 9.7 | 0.00 | 4.65 | 1.45 | 73 | 1013.1 |
| 20260904195403 | 26 | 110 | 6.4 | 9.7 | 0.00 | 4.65 | 1.45 | 72 | 1013.4 |
| 20260904195318 | 26 | 114 | 6.4 | 9.7 | 0.00 | 4.65 | 1.45 | 72 | 1013.2 |
| 20260904195305 | 26 | 110 | 6.4 | 9.7 | 0.00 | 4.65 | 1.45 | 72 | 1013.2 |
| 20260904195203 | 26 | 114 | 6.4 | 9.7 | 0.00 | 4.65 | 1.45 | 72 | 1013.1 |
| 20260904195003 | 26 | 57 | 4.8 | 8.0 | 0.00 | 4.65 | 1.45 | 73 | 1013.6 |
| 20260904194903 | 26 | 355 | 3.2 | 11.3 | 0.00 | 4.65 | 1.45 | 71 | 1013.6 |
| 20260904194803 | 26 | 27 | 3.2 | 11.3 | 0.00 | 4.65 | 1.45 | 71 | 1013.4 |
| 20260904194703 | 26 | 20 | 3.2 | 11.3 | 0.00 | 4.65 | 1.45 | 72 | 1013.5 |
| 20260904194616 | 26 | 268 | 3.2 | 11.3 | 0.00 | 4.65 | 1.45 | 74 | 1013.6 |
| 20260904194503 | 26 | 67 | 4.8 | 11.3 | 0.00 | 4.65 | 1.45 | 74 | 1013.8 |
| 20260904194303 | 26 | 124 | 4.8 | 14.5 | 0.00 | 4.65 | 1.45 | 75 | 1013.8 |
| 20260904194216 | 26 | 355 | 3.2 | 14.5 | 0.00 | 4.65 | 1.45 | 76 | 1013.9 |
| 20260904194203 | 26 | 292 | 4.8 | 14.5 | 0.00 | 4.65 | 1.45 | 76 | 1013.9 |
| 20260904194103 | 26 | 287 | 6.4 | 14.5 | 0.00 | 4.65 | 1.45 | 74 | 1013.8 |
| 20260904193903 | 26 | 292 | 8.0 | 17.7 | 0.00 | 4.65 | 1.45 | 74 | 1014.1 |
| 20260904193817 | 26 | 292 | 9.7 | 17.7 | 0.00 | 4.65 | 1.45 | 73 | 1014.1 |
| 20260904193803 | 26 | 287 | 9.7 | 17.7 | 0.00 | 4.65 | 1.45 | 73 | 1014.1 |
| 20260904193703 | 26 | 298 | 9.7 | 17.7 | 0.00 | 4.65 | 1.45 | 74 | 1014.0 |
| 20260904193503 | 26 | 310 | 8.0 | 14.5 | 0.00 | 4.65 | 1.45 | 73 | 1014.0 |
| 20260904193417 | 26 | 290 | 4.8 | 14.5 | 0.00 | 4.65 | 1.45 | 72 | 1014.2 |
| 20260904193403 | 26 | 300 | 4.8 | 14.5 | 0.00 | 4.65 | 1.45 | 74 | 1014.2 |
| 20260904193303 | 26 | 293 | 3.2 | 14.5 | 0.00 | 4.65 | 1.45 | 75 | 1014.3 |
| 20260904193103 | 26 | 295 | 6.4 | 22.5 | 0.00 | 4.65 | 1.45 | 75 | 1014.3 |
| 20260904193018 | 26 | 300 | 6.4 | 22.5 | 0.00 | 4.65 | 1.45 | 74 | 1014.3 |
| 20260904193003 | 26 | 309 | 6.4 | 22.5 | 0.00 | 4.65 | 1.45 | 75 | 1014.3 |
| 20260904192903 | 26 | 301 | 9.7 | 22.5 | 0.00 | 4.65 | 1.45 | 75 | 1014.4 |
| 20260904192703 | 26 | 318 | 11.3 | 22.5 | 0.00 | 4.65 | 1.45 | 73 | 1014.3 |
| 20260904192603 | 26 | 285 | 12.9 | 22.5 | 0.00 | 4.65 | 1.45 | 71 | 1014.5 |
| 20260904192503 | 27 | 297 | 8.0 | 20.9 | 0.00 | 4.65 | 1.45 | 71 | 1014.4 |
| 20260904192403 | 27 | 306 | 8.0 | 16.1 | 0.00 | 4.65 | 1.45 | 73 | 1014.5 |
| 20260904192306 | 27 | 301 | 9.7 | 16.1 | 0.00 | 4.65 | 1.45 | 73 | 1014.6 |
| 20260904192203 | 27 | 307 | 8.0 | 17.7 | 0.00 | 4.65 | 1.45 | 74 | 1014.6 |
| 20260904192103 | 27 | 313 | 4.8 | 17.7 | 0.00 | 4.65 | 1.45 | 74 | 1014.7 |
| 20260904192003 | 27 | 39 | 6.4 | 17.7 | 0.00 | 4.65 | 1.45 | 74 | 1014.8 |
| 20260904191903 | 27 | 262 | 8.0 | 17.7 | 0.00 | 4.65 | 1.45 | 72 | 1014.8 |
| 20260904191803 | 27 | 286 | 8.0 | 17.7 | 0.00 | 4.65 | 1.45 | 72 | 1014.8 |
| 20260904191703 | 27 | 317 | 8.0 | 19.3 | 0.00 | 4.65 | 1.45 | 73 | 1014.9 |
| 20260904191603 | 27 | 230 | 6.4 | 19.3 | 0.00 | 4.65 | 1.45 | 74 | 1014.9 |
| 20260904191517 | 27 | 212 | 9.7 | 19.3 | 0.00 | 4.65 | 1.45 | 73 | 1014.8 |
| 20260904191503 | 27 | 240 | 8.0 | 19.3 | 0.00 | 4.65 | 1.45 | 74 | 1014.8 |
| 20260904191403 | 27 | 287 | 8.0 | 19.3 | 0.00 | 4.65 | 1.45 | 73 | 1014.9 |
| 20260904191203 | 27 | 307 | 4.8 | 12.9 | 0.00 | 4.65 | 1.45 | 74 | 1014.8 |
| 20260904191103 | 27 | 256 | 4.8 | 9.7 | 0.00 | 4.65 | 1.45 | 73 | 1014.9 |
| 20260904191003 | 27 | 187 | 4.8 | 9.7 | 0.00 | 4.65 | 1.45 | 75 | 1014.8 |
| 20260904190903 | 27 | 309 | 3.2 | 9.7 | 0.00 | 4.65 | 1.45 | 74 | 1014.8 |
| 20260904190803 | 27 | 246 | 3.2 | 14.5 | 0.00 | 4.65 | 1.45 | 77 | 1014.8 |
| 20260904190703 | 26 | 297 | 3.2 | 14.5 | 0.00 | 4.65 | 1.45 | 75 | 1014.9 |
| 20260904190603 | 26 | 304 | 3.2 | 14.5 | 0.00 | 4.65 | 1.45 | 75 | 1014.8 |
| 20260904190503 | 26 | 300 | 4.8 | 14.5 | 0.00 | 4.65 | 1.45 | 74 | 1015.0 |
| 20260904190417 | 27 | 297 | 8.0 | 14.5 | 0.00 | 4.65 | 1.45 | 75 | 1015.2 |
| 20260904190403 | 27 | 303 | 8.0 | 14.5 | 0.00 | 4.65 | 1.45 | 74 | 1015.2 |
| 20260904190303 | 27 | 298 | 4.8 | 12.9 | 0.00 | 4.65 | 1.45 | 73 | 1014.9 |
| 20260904190003 | 27 | 266 | 6.4 | 11.3 | 0.00 | 4.65 | 1.45 | 74 | 1014.8 |
| 20260904185903 | 27 | 231 | 6.4 | 11.3 | 0.00 | 4.65 | 1.45 | 75 | 1014.8 |
| 20260904185803 | 27 | 342 | 4.8 | 16.1 | 0.00 | 4.65 | 1.45 | 75 | 1014.9 |
| 20260904185703 | 26 | 324 | 6.4 | 16.1 | 0.00 | 4.65 | 1.45 | 73 | 1014.9 |
| 20260904185618 | 26 | 329 | 6.4 | 16.1 | 0.00 | 4.65 | 1.45 | 74 | 1014.8 |
| 20260904185603 | 26 | 323 | 6.4 | 16.1 | 0.00 | 4.65 | 1.45 | 76 | 1014.8 |
| 20260904185503 | 26 | 297 | 6.4 | 16.1 | 0.00 | 4.65 | 1.45 | 74 | 1014.8 |
| 20260904185306 | 27 | 256 | 6.4 | 17.7 | 0.00 | 4.65 | 1.45 | 74 | 1014.8 |
| 20260904185203 | 27 | 303 | 8.0 | 17.7 | 0.00 | 4.65 | 1.45 | 74 | 1014.8 |
| 20260904185103 | 27 | 280 | 8.0 | 17.7 | 0.00 | 4.65 | 1.45 | 73 | 1014.8 |
| 20260904185003 | 27 | 252 | 9.7 | 17.7 | 0.00 | 4.65 | 1.45 | 74 | 1014.7 |
| 20260904184918 | 27 | 297 | 9.7 | 17.7 | 0.00 | 4.65 | 1.45 | 73 | 1014.6 |
| 20260904184903 | 27 | 304 | 9.7 | 17.7 | 0.00 | 4.65 | 1.45 | 74 | 1014.6 |
| 20260904184803 | 27 | 314 | 6.4 | 17.7 | 0.00 | 4.65 | 1.45 | 71 | 1014.6 |
| 20260904184603 | 27 | 273 | 8.0 | 16.1 | 0.00 | 4.65 | 1.45 | 74 | 1014.8 |
| 20260904184503 | 27 | 284 | 9.7 | 16.1 | 0.00 | 4.65 | 1.45 | 73 | 1014.8 |
| 20260904184403 | 27 | 299 | 9.7 | 16.1 | 0.00 | 4.65 | 1.45 | 73 | 1014.8 |
| 20260904184303 | 27 | 298 | 9.7 | 14.5 | 0.00 | 4.65 | 1.45 | 70 | 1014.8 |
| 20260904184203 | 27 | 309 | 8.0 | 14.5 | 0.00 | 4.65 | 1.45 | 71 | 1014.8 |
| 20260904184103 | 27 | 284 | 8.0 | 16.1 | 0.00 | 4.65 | 1.45 | 71 | 1014.8 |
| 20260904184003 | 27 | 293 | 6.4 | 16.1 | 0.00 | 4.65 | 1.45 | 70 | 1015.0 |
| 20260904183918 | 27 | 276 | 4.8 | 16.1 | 0.00 | 4.65 | 1.45 | 72 | 1014.8 |
| 20260904183903 | 27 | 290 | 4.8 | 16.1 | 0.00 | 4.65 | 1.45 | 73 | 1014.8 |
| 20260904183817 | 27 | 256 | 4.8 | 19.3 | 0.00 | 4.65 | 1.45 | 73 | 1014.9 |
| 20260904183503 | 27 | 305 | 8.0 | 19.3 | 0.00 | 4.65 | 1.45 | 73 | 1014.7 |
| 20260904183417 | 27 | 313 | 9.7 | 19.3 | 0.00 | 4.65 | 1.45 | 71 | 1014.7 |
| 20260904183403 | 27 | 320 | 9.7 | 19.3 | 0.00 | 4.65 | 1.45 | 71 | 1014.7 |
| 20260904183303 | 27 | 314 | 6.4 | 16.1 | 0.00 | 4.65 | 1.45 | 73 | 1015.0 |
| 20260904183103 | 27 | 29 | 6.4 | 11.3 | 0.00 | 4.65 | 1.45 | 75 | 1014.8 |
| 20260904183003 | 27 | 304 | 6.4 | 11.3 | 0.00 | 4.65 | 1.45 | 72 | 1015.0 |
| 20260904182903 | 27 | 293 | 4.8 | 9.7 | 0.00 | 4.65 | 1.45 | 75 | 1014.9 |
| 20260904182803 | 27 | 307 | 3.2 | 9.7 | 0.00 | 4.65 | 1.45 | 75 | 1014.8 |
| 20260904182703 | 27 | 315 | 3.2 | 9.7 | 0.00 | 4.65 | 1.45 | 74 | 1014.9 |
| 20260904182603 | 27 | 357 | 4.8 | 9.7 | 0.00 | 4.65 | 1.45 | 74 | 1014.7 |
| 20260904182503 | 27 | 321 | 4.8 | 9.7 | 0.00 | 4.65 | 1.45 | 74 | 1015.0 |
| 20260904182403 | 27 | 294 | 4.8 | 8.0 | 0.00 | 4.65 | 1.45 | 74 | 1015.0 |
| 20260904182203 | 27 | 271 | 4.8 | 9.7 | 0.00 | 4.65 | 1.45 | 75 | 1014.9 |
| 20260904182103 | 27 | 260 | 4.8 | 9.7 | 0.00 | 4.65 | 1.45 | 77 | 1014.8 |
| 20260904182003 | 27 | 287 | 6.4 | 9.7 | 0.00 | 4.65 | 1.45 | 74 | 1014.8 |
| 20260904181918 | 27 | 298 | 6.4 | 9.7 | 0.00 | 4.65 | 1.45 | 74 | 1014.8 |
| 20260904181903 | 27 | 304 | 6.4 | 9.7 | 0.00 | 4.65 | 1.45 | 74 | 1014.8 |
| 20260904181803 | 27 | 304 | 4.8 | 9.7 | 0.00 | 4.65 | 1.45 | 77 | 1015.0 |
| 20260904181603 | 26 | 345 | 4.8 | 12.9 | 0.00 | 4.65 | 1.45 | 78 | 1014.9 |
| 20260904181516 | 26 | 21 | 6.4 | 16.1 | 0.00 | 4.65 | 1.45 | 78 | 1014.6 |
| 20260904181503 | 26 | 30 | 6.4 | 17.7 | 0.00 | 4.65 | 1.45 | 79 | 1014.6 |
| 20260904181403 | 26 | 3 | 8.0 | 17.7 | 0.00 | 4.65 | 1.45 | 78 | 1014.8 |
| 20260904181203 | 26 | 356 | 11.3 | 17.7 | 0.00 | 4.65 | 1.45 | 77 | 1014.7 |
| 20260904181103 | 26 | 328 | 11.3 | 17.7 | 0.00 | 4.65 | 1.45 | 76 | 1014.8 |
| 20260904181003 | 27 | 326 | 8.0 | 16.1 | 0.00 | 4.65 | 1.45 | 76 | 1014.8 |
| 20260904180903 | 27 | 292 | 4.8 | 16.1 | 0.00 | 4.65 | 1.45 | 77 | 1014.7 |
| 20260904180803 | 26 | 295 | 4.8 | 16.1 | 0.00 | 4.65 | 1.45 | 80 | 1014.9 |
| 20260904180703 | 26 | 295 | 6.4 | 16.1 | 0.00 | 4.65 | 1.45 | 80 | 1014.5 |
| 20260904180603 | 26 | 322 | 8.0 | 16.1 | 0.00 | 4.65 | 1.45 | 77 | 1014.6 |
| 20260904180503 | 26 | 324 | 6.4 | 12.9 | 0.00 | 4.65 | 1.45 | 79 | 1014.8 |
| 20260904180403 | 26 | 314 | 4.8 | 12.9 | 0.00 | 4.65 | 1.45 | 78 | 1014.6 |
| 20260904180303 | 26 | 264 | 4.8 | 12.9 | 0.00 | 4.65 | 1.45 | 81 | 1014.8 |
| 20260904180205 | 26 | 285 | 3.2 | 12.9 | 0.00 | 4.65 | 1.45 | 80 | 1014.7 |
| 20260904180003 | 26 | 320 | 4.8 | 11.3 | 0.00 | 4.65 | 1.45 | 81 | 1014.6 |
| 20260904175903 | 26 | 345 | 6.4 | 11.3 | 0.00 | 4.65 | 1.45 | 81 | 1014.8 |
| 20260904175803 | 26 | 47 | 8.0 | 11.3 | 0.00 | 4.65 | 1.45 | 80 | 1014.6 |
| 20260904175703 | 26 | 8 | 6.4 | 11.3 | 0.00 | 4.65 | 1.45 | 78 | 1014.8 |
| 20260904175603 | 26 | 4 | 4.8 | 9.7 | 0.00 | 4.65 | 1.45 | 79 | 1014.8 |
| 20260904175503 | 26 | 309 | 4.8 | 8.0 | 0.00 | 4.65 | 1.45 | 81 | 1014.9 |
| 20260904175403 | 25 | 335 | 4.8 | 12.9 | 0.00 | 4.65 | 1.45 | 80 | 1014.7 |
| 20260904175305 | 25 | 320 | 4.8 | 12.9 | 0.00 | 4.65 | 1.45 | 83 | 1014.7 |
| 20260904175203 | 25 | 303 | 6.4 | 12.9 | 0.00 | 4.65 | 1.45 | 81 | 1014.7 |
| 20260904175103 | 25 | 321 | 8.0 | 12.9 | 0.00 | 4.65 | 1.45 | 80 | 1014.8 |
| 20260904175003 | 26 | 301 | 8.0 | 12.9 | 0.00 | 4.65 | 1.45 | 79 | 1014.8 |
| 20260904174903 | 26 | 315 | 6.4 | 12.9 | 0.00 | 4.65 | 1.45 | 80 | 1014.8 |
| 20260904174803 | 26 | 21 | 6.4 | 12.9 | 0.00 | 4.65 | 1.45 | 78 | 1014.7 |
| 20260904174703 | 26 | 346 | 8.0 | 12.9 | 0.00 | 4.65 | 1.45 | 78 | 1014.8 |
| 20260904174603 | 26 | 339 | 6.4 | 12.9 | 0.00 | 4.65 | 1.45 | 78 | 1014.9 |
| 20260904174503 | 26 | 300 | 3.2 | 12.9 | 0.00 | 4.65 | 1.45 | 84 | 1014.7 |
| 20260904174403 | 26 | 292 | 4.8 | 12.9 | 0.00 | 4.65 | 1.45 | 86 | 1014.9 |
| 20260904174303 | 25 | 82 | 4.8 | 12.9 | 0.00 | 4.65 | 1.45 | 84 | 1014.9 |
| 20260904174203 | 25 | 110 | 6.4 | 12.9 | 0.00 | 4.65 | 1.45 | 81 | 1015.0 |
| 20260904174117 | 25 | 49 | 4.8 | 8.0 | 0.00 | 4.65 | 1.45 | 83 | 1014.9 |
| 20260904174103 | 25 | 90 | 4.8 | 8.0 | 0.00 | 4.65 | 1.45 | 82 | 1014.9 |
| 20260904174003 | 25 | 259 | 4.8 | 8.0 | 0.00 | 4.65 | 1.45 | 82 | 1015.0 |
| 20260904173803 | 25 | 336 | 3.2 | 6.4 | 0.00 | 4.65 | 1.45 | 83 | 1014.9 |
| 20260904173717 | 25 | 275 | 1.6 | 6.4 | 0.00 | 4.65 | 1.45 | 83 | 1014.8 |
| 20260904173703 | 25 | 277 | 1.6 | 6.4 | 0.00 | 4.65 | 1.45 | 83 | 1014.8 |
| 20260904173603 | 25 | 274 | 3.2 | 6.4 | 0.00 | 4.65 | 1.45 | 83 | 1015.0 |
| 20260904173518 | 25 | 218 | 4.8 | 8.0 | 0.00 | 4.65 | 1.45 | 83 | 1014.8 |
| 20260904173403 | 25 | 247 | 4.8 | 8.0 | 0.00 | 4.65 | 1.45 | 84 | 1015.1 |
| 20260904173203 | 25 | 168 | 4.8 | 12.9 | 0.00 | 4.65 | 1.45 | 84 | 1015.1 |
| 20260904173116 | 25 | 156 | 6.4 | 12.9 | 0.00 | 4.65 | 1.45 | 84 | 1014.8 |
| 20260904173103 | 25 | 157 | 6.4 | 12.9 | 0.00 | 4.65 | 1.45 | 84 | 1014.8 |
| 20260904172803 | 25 | 105 | 8.0 | 12.9 | 0.00 | 4.65 | 1.45 | 86 | 1014.9 |
| 20260904172703 | 25 | 105 | 8.0 | 11.3 | 0.00 | 4.65 | 1.45 | 84 | 1014.8 |
| 20260904172617 | 25 | 97 | 6.4 | 11.3 | 0.00 | 4.65 | 1.45 | 84 | 1015.0 |
| 20260904172603 | 25 | 94 | 6.4 | 11.3 | 0.00 | 4.65 | 1.45 | 85 | 1015.0 |
| 20260904172503 | 25 | 89 | 6.4 | 11.3 | 0.00 | 4.65 | 1.45 | 88 | 1015.0 |
| 20260904172305 | 24 | 40 | 6.4 | 11.3 | 0.00 | 4.65 | 1.45 | 87 | 1014.9 |
| 20260904172203 | 24 | 76 | 6.4 | 11.3 | 0.00 | 4.65 | 1.45 | 89 | 1015.0 |
| 20260904172103 | 24 | 74 | 6.4 | 8.0 | 0.00 | 4.65 | 1.45 | 89 | 1015.1 |
| 20260904172017 | 24 | 45 | 4.8 | 9.7 | 0.00 | 4.65 | 1.45 | 87 | 1015.1 |
| 20260904172003 | 24 | 40 | 4.8 | 9.7 | 0.00 | 4.65 | 1.45 | 87 | 1015.1 |
| 20260904171903 | 24 | 63 | 4.8 | 9.7 | 0.00 | 4.65 | 1.45 | 89 | 1015.2 |
| 20260904171703 | 23 | 68 | 4.8 | 9.7 | 0.00 | 4.65 | 1.45 | 91 | 1015.1 |
| 20260904171603 | 23 | 7 | 3.2 | 8.0 | 0.00 | 4.65 | 1.45 | 89 | 1015.2 |
| 20260904171503 | 23 | 357 | 3.2 | 8.0 | 0.00 | 4.65 | 1.45 | 88 | 1015.3 |
| 20260904171403 | 23 | 357 | 4.8 | 8.0 | 0.00 | 4.65 | 1.45 | 88 | 1015.4 |
| 20260904171303 | 23 | 3 | 6.4 | 8.0 | 0.00 | 4.65 | 1.45 | 89 | 1015.3 |
| 20260904171203 | 23 | 11 | 4.8 | 8.0 | 0.00 | 4.65 | 1.45 | 87 | 1015.7 |
| 20260904171103 | 23 | 54 | 4.8 | 12.9 | 0.00 | 4.65 | 1.45 | 88 | 1015.8 |
| 20260904171003 | 23 | 5 | 3.2 | 12.9 | 0.00 | 4.65 | 1.45 | 89 | 1015.6 |
| 20260904170903 | 23 | 294 | 4.8 | 12.9 | 0.00 | 4.65 | 1.45 | 90 | 1015.7 |
| 20260904170803 | 23 | 340 | 6.4 | 12.9 | 0.00 | 4.65 | 1.45 | 89 | 1015.4 |
| 20260904170717 | 23 | 351 | 4.8 | 12.9 | 0.00 | 4.65 | 1.45 | 88 | 1015.3 |
| 20260904170703 | 23 | 352 | 4.8 | 12.9 | 0.00 | 4.65 | 1.45 | 88 | 1015.3 |
| 20260904170603 | 23 | 355 | 3.2 | 8.0 | 0.00 | 4.65 | 1.45 | 90 | 1015.6 |
| 20260904170403 | 23 | 8 | 4.8 | 8.0 | 0.00 | 4.65 | 1.45 | 90 | 1015.6 |
| 20260904170303 | 23 | 303 | 4.8 | 6.4 | 0.00 | 4.65 | 1.45 | 89 | 1015.3 |
| 20260904170203 | 23 | 295 | 3.2 | 6.4 | 0.00 | 4.65 | 1.45 | 90 | 1015.6 |
| 20260904170003 | 23 | 39 | 3.2 | 6.4 | 0.00 | 4.65 | 1.45 | 88 | 1015.3 |
| 20260904165903 | 23 | 59 | 1.6 | 6.4 | 0.00 | 4.65 | 1.45 | 90 | 1015.6 |
| 20260904165803 | 23 | 46 | 1.6 | 6.4 | 0.00 | 4.65 | 1.45 | 91 | 1015.3 |
| 20260904165717 | 23 | 35 | 3.2 | 6.4 | 0.00 | 4.65 | 1.45 | 90 | 1015.6 |
| 20260904165703 | 23 | 6 | 3.2 | 6.4 | 0.00 | 4.65 | 1.45 | 90 | 1015.6 |
| 20260904165617 | 23 | 12 | 4.8 | 6.4 | 0.00 | 4.65 | 1.45 | 90 | 1015.6 |
| 20260904165416 | 23 | 297 | 1.6 | 4.8 | 0.00 | 4.65 | 1.45 | 91 | 1015.8 |
| 20260904165305 | 23 | 271 | 0.0 | 8.0 | 0.00 | 4.65 | 1.45 | 91 | 1015.8 |
| 20260904165217 | 23 | 276 | 1.6 | 8.0 | 0.00 | 4.65 | 1.45 | 91 | 1015.8 |
| 20260904165103 | 23 | 285 | 3.2 | 8.0 | 0.00 | 4.65 | 1.45 | 90 | 1015.9 |
| 20260904164903 | 23 | 296 | 4.8 | 9.7 | 0.00 | 4.65 | 1.45 | 90 | 1015.9 |
| 20260904164803 | 23 | 286 | 3.2 | 14.5 | 0.00 | 4.65 | 1.45 | 89 | 1015.8 |
| 20260904164703 | 23 | 325 | 4.8 | 14.5 | 0.00 | 4.65 | 1.45 | 90 | 1015.7 |
| 20260904164603 | 23 | 326 | 6.4 | 14.5 | 0.00 | 4.65 | 1.45 | 90 | 1015.6 |
| 20260904164503 | 23 | 288 | 4.8 | 14.5 | 0.00 | 4.65 | 1.45 | 90 | 1015.8 |
| 20260904164416 | 23 | 315 | 3.2 | 14.5 | 0.00 | 4.65 | 1.45 | 89 | 1015.8 |
| 20260904164403 | 23 | 341 | 3.2 | 14.5 | 0.00 | 4.65 | 1.45 | 89 | 1015.8 |
| 20260904164303 | 23 | 294 | 3.2 | 12.9 | 0.00 | 4.65 | 1.45 | 91 | 1015.8 |
| 20260904164003 | 23 | 349 | 8.0 | 14.5 | 0.08 | 4.65 | 1.45 | 90 | 1015.8 |
| 20260904163903 | 23 | 348 | 8.0 | 14.5 | 0.13 | 4.65 | 1.45 | 88 | 1015.8 |
| 20260904163803 | 23 | 333 | 3.2 | 12.9 | 0.13 | 4.65 | 1.45 | 91 | 1015.7 |
| 20260904163717 | 23 | 15 | 4.8 | 12.9 | 0.13 | 4.65 | 1.45 | 89 | 1015.8 |
| 20260904163703 | 23 | 33 | 4.8 | 9.7 | 0.13 | 4.65 | 1.45 | 89 | 1015.8 |
| 20260904163603 | 23 | 344 | 3.2 | 9.7 | 0.13 | 4.65 | 1.45 | 91 | 1015.8 |
| 20260904163403 | 23 | 23 | 3.2 | 8.0 | 0.13 | 4.65 | 1.45 | 90 | 1015.7 |
| 20260904163317 | 23 | 37 | 3.2 | 8.0 | 0.13 | 4.65 | 1.45 | 91 | 1015.8 |
| 20260904163303 | 23 | 8 | 1.6 | 6.4 | 0.13 | 4.65 | 1.45 | 91 | 1015.8 |
| 20260904163217 | 23 | 305 | 1.6 | 8.0 | 0.13 | 4.65 | 1.45 | 92 | 1015.7 |
| 20260904163203 | 23 | 301 | 1.6 | 8.0 | 0.13 | 4.65 | 1.45 | 92 | 1015.7 |
| 20260904162903 | 23 | 311 | 4.8 | 16.1 | 0.13 | 4.65 | 1.45 | 92 | 1015.8 |
| 20260904162803 | 23 | 293 | 8.0 | 16.1 | 0.13 | 4.65 | 1.45 | 92 | 1016.0 |
| 20260904162703 | 23 | 320 | 8.0 | 16.1 | 0.13 | 4.65 | 1.45 | 91 | 1015.9 |
| 20260904162603 | 23 | 296 | 6.4 | 9.7 | 0.13 | 4.65 | 1.45 | 91 | 1015.9 |
| 20260904162503 | 23 | 327 | 4.8 | 9.7 | 0.13 | 4.65 | 1.45 | 91 | 1016.0 |
| 20260904162403 | 23 | 278 | 3.2 | 9.7 | 0.13 | 4.65 | 1.45 | 91 | 1016.0 |
| 20260904162306 | 23 | 309 | 3.2 | 9.7 | 0.13 | 4.65 | 1.45 | 92 | 1016.0 |
| 20260904162203 | 23 | 22 | 4.8 | 9.7 | 0.13 | 4.65 | 1.45 | 91 | 1015.9 |
| 20260904162118 | 23 | 46 | 4.8 | 9.7 | 0.13 | 4.65 | 1.45 | 92 | 1015.8 |
| 20260904162103 | 23 | 50 | 4.8 | 9.7 | 0.13 | 4.65 | 1.45 | 92 | 1015.8 |
| 20260904162017 | 23 | 119 | 1.6 | 6.4 | 0.13 | 4.65 | 1.45 | 94 | 1016.0 |
| 20260904162003 | 23 | 107 | 1.6 | 8.0 | 0.13 | 4.65 | 1.45 | 93 | 1016.0 |
| 20260904161716 | 23 | 349 | 3.2 | 9.7 | 0.13 | 4.65 | 1.45 | 93 | 1015.8 |
| 20260904161703 | 23 | 358 | 3.2 | 9.7 | 0.13 | 4.65 | 1.45 | 93 | 1015.8 |
| 20260904161603 | 23 | 340 | 4.8 | 12.9 | 0.13 | 4.65 | 1.45 | 94 | 1016.0 |
| 20260904161403 | 23 | 328 | 6.4 | 12.9 | 0.13 | 4.65 | 1.45 | 94 | 1016.2 |
| 20260904161303 | 23 | 325 | 8.0 | 12.9 | 0.13 | 4.65 | 1.45 | 92 | 1016.2 |
| 20260904161203 | 23 | 282 | 8.0 | 12.9 | 0.13 | 4.65 | 1.45 | 92 | 1016.1 |
| 20260904161103 | 23 | 293 | 8.0 | 12.9 | 0.13 | 4.65 | 1.45 | 93 | 1016.3 |
| 20260904161003 | 23 | 302 | 4.8 | 11.3 | 0.13 | 4.65 | 1.45 | 94 | 1016.4 |
| 20260904160903 | 23 | 28 | 3.2 | 8.0 | 0.13 | 4.65 | 1.45 | 95 | 1016.2 |
| 20260904160803 | 23 | 282 | 3.2 | 8.0 | 0.13 | 4.65 | 1.45 | 94 | 1016.3 |
| 20260904160703 | 23 | 255 | 1.6 | 12.9 | 0.13 | 4.65 | 1.45 | 94 | 1016.1 |
| 20260904160603 | 23 | 292 | 1.6 | 12.9 | 0.13 | 4.65 | 1.45 | 94 | 1016.1 |
| 20260904160503 | 22 | 200 | 1.6 | 12.9 | 0.13 | 4.65 | 1.45 | 94 | 1016.0 |
| 20260904160418 | 22 | 256 | 1.6 | 12.9 | 0.13 | 4.65 | 1.45 | 94 | 1016.2 |
| 20260904160403 | 22 | 294 | 3.2 | 12.9 | 0.13 | 4.65 | 1.45 | 94 | 1016.2 |
| 20260904160317 | 22 | 353 | 3.2 | 12.9 | 0.13 | 4.65 | 1.45 | 94 | 1016.2 |
| 20260904160303 | 22 | 350 | 3.2 | 12.9 | 0.13 | 4.65 | 1.45 | 94 | 1016.2 |
| 20260904160003 | 22 | 225 | 3.2 | 9.7 | 0.13 | 4.65 | 1.45 | 94 | 1016.4 |
| 20260904155903 | 22 | 222 | 6.4 | 9.7 | 0.13 | 4.65 | 1.45 | 94 | 1016.5 |
| 20260904155803 | 22 | 217 | 6.4 | 9.7 | 0.13 | 4.65 | 1.45 | 94 | 1016.3 |
| 20260904155703 | 22 | 183 | 3.2 | 8.0 | 0.13 | 4.65 | 1.45 | 95 | 1016.3 |
| 20260904155603 | 22 | 112 | 3.2 | 8.0 | 0.13 | 4.65 | 1.45 | 94 | 1016.0 |
| 20260904155503 | 22 | 46 | 4.8 | 8.0 | 0.13 | 4.65 | 1.45 | 94 | 1016.3 |
| 20260904155403 | 22 | 48 | 4.8 | 11.3 | 0.13 | 4.65 | 1.45 | 94 | 1016.4 |
| 20260904155306 | 22 | 38 | 3.2 | 12.9 | 0.13 | 4.65 | 1.45 | 94 | 1016.2 |
| 20260904155203 | 22 | 323 | 3.2 | 12.9 | 0.13 | 4.65 | 1.45 | 94 | 1016.4 |
| 20260904155103 | 22 | 231 | 6.4 | 12.9 | 0.13 | 4.65 | 1.45 | 93 | 1016.8 |
| 20260904154903 | 22 | 291 | 8.0 | 12.9 | 0.13 | 4.65 | 1.45 | 93 | 1016.5 |
| 20260904154803 | 22 | 296 | 4.8 | 12.9 | 0.13 | 4.65 | 1.45 | 92 | 1016.8 |
| 20260904154703 | 23 | 326 | 3.2 | 9.7 | 0.13 | 4.65 | 1.45 | 93 | 1016.8 |
| 20260904154603 | 23 | 328 | 4.8 | 9.7 | 0.13 | 4.65 | 1.45 | 93 | 1016.6 |
| 20260904154503 | 23 | 294 | 4.8 | 9.7 | 0.13 | 4.65 | 1.45 | 93 | 1016.8 |
| 20260904154403 | 23 | 279 | 4.8 | 8.0 | 0.13 | 4.65 | 1.45 | 92 | 1016.7 |
| 20260904154317 | 23 | 271 | 4.8 | 12.9 | 0.13 | 4.65 | 1.45 | 92 | 1016.6 |
| 20260904154303 | 23 | 269 | 3.2 | 12.9 | 0.13 | 4.65 | 1.45 | 92 | 1016.6 |
| 20260904154203 | 23 | 302 | 3.2 | 14.5 | 0.13 | 4.62 | 1.45 | 91 | 1016.7 |
| 20260904154003 | 23 | 263 | 6.4 | 19.3 | 0.05 | 4.57 | 1.37 | 90 | 1016.5 |
| 20260904153903 | 23 | 295 | 8.0 | 20.9 | 0.00 | 4.52 | 1.32 | 89 | 1016.7 |
| 20260904153803 | 23 | 304 | 8.0 | 22.5 | 0.00 | 4.50 | 1.32 | 88 | 1016.6 |
| 20260904153703 | 23 | 316 | 9.7 | 22.5 | 0.00 | 4.50 | 1.32 | 88 | 1016.8 |
| 20260904153603 | 23 | 288 | 12.9 | 22.5 | 0.00 | 4.50 | 1.32 | 87 | 1016.7 |
| 20260904153503 | 23 | 279 | 12.9 | 22.5 | 0.00 | 4.50 | 1.32 | 87 | 1016.7 |
| 20260904153403 | 24 | 291 | 11.3 | 20.9 | 0.00 | 4.50 | 1.32 | 87 | 1016.7 |
| 20260904153303 | 24 | 295 | 12.9 | 20.9 | 0.00 | 4.50 | 1.32 | 86 | 1016.5 |
| 20260904153203 | 24 | 311 | 12.9 | 20.9 | 0.00 | 4.50 | 1.32 | 85 | 1016.2 |
| 20260904153103 | 24 | 302 | 6.4 | 12.9 | 0.00 | 4.50 | 1.32 | 85 | 1016.4 |
| 20260904153003 | 24 | 293 | 6.4 | 12.9 | 0.00 | 4.50 | 1.32 | 85 | 1016.4 |
| 20260904152903 | 24 | 318 | 6.4 | 11.3 | 0.00 | 4.50 | 1.32 | 86 | 1016.3 |
| 20260904152803 | 24 | 296 | 4.8 | 11.3 | 0.00 | 4.50 | 1.32 | 86 | 1016.2 |
| 20260904152718 | 24 | 1 | 4.8 | 11.3 | 0.00 | 4.50 | 1.32 | 86 | 1016.3 |
| 20260904152703 | 24 | 353 | 4.8 | 11.3 | 0.00 | 4.50 | 1.32 | 87 | 1016.3 |
| 20260904152603 | 24 | 311 | 8.0 | 11.3 | 0.00 | 4.50 | 1.32 | 86 | 1016.0 |
| 20260904152403 | 24 | 266 | 6.4 | 9.7 | 0.00 | 4.50 | 1.32 | 85 | 1016.2 |
| 20260904152306 | 24 | 287 | 4.8 | 9.7 | 0.00 | 4.50 | 1.32 | 85 | 1016.2 |
| 20260904152203 | 24 | 273 | 3.2 | 9.7 | 0.00 | 4.50 | 1.32 | 85 | 1016.0 |
| 20260904152103 | 24 | 306 | 3.2 | 9.7 | 0.00 | 4.50 | 1.32 | 86 | 1016.0 |
| 20260904152003 | 24 | 306 | 4.8 | 9.7 | 0.00 | 4.50 | 1.32 | 85 | 1016.1 |
| 20260904151917 | 24 | 262 | 6.4 | 9.7 | 0.00 | 4.50 | 1.32 | 85 | 1015.8 |
| 20260904151903 | 24 | 260 | 6.4 | 9.7 | 0.00 | 4.50 | 1.32 | 85 | 1015.8 |
| 20260904151603 | 24 | 308 | 6.4 | 9.7 | 0.00 | 4.50 | 1.32 | 85 | 1016.0 |
| 20260904151503 | 24 | 273 | 6.4 | 9.7 | 0.00 | 4.50 | 1.32 | 85 | 1015.7 |
| 20260904151403 | 24 | 292 | 4.8 | 9.7 | 0.00 | 4.50 | 1.32 | 85 | 1015.8 |
| 20260904151303 | 24 | 285 | 4.8 | 9.7 | 0.00 | 4.50 | 1.32 | 85 | 1015.7 |
| 20260904151203 | 24 | 304 | 4.8 | 8.0 | 0.00 | 4.50 | 1.32 | 84 | 1015.8 |
| 20260904151103 | 24 | 312 | 6.4 | 8.0 | 0.00 | 4.50 | 1.32 | 84 | 1015.8 |
| 20260904151003 | 24 | 315 | 3.2 | 8.0 | 0.00 | 4.50 | 1.32 | 85 | 1015.9 |
| 20260904150903 | 24 | 276 | 3.2 | 8.0 | 0.00 | 4.50 | 1.32 | 84 | 1015.8 |
| 20260904150803 | 24 | 24 | 3.2 | 11.3 | 0.00 | 4.50 | 1.32 | 83 | 1015.7 |
| 20260904150718 | 24 | 9 | 3.2 | 11.3 | 0.00 | 4.50 | 1.32 | 83 | 1015.9 |
| 20260904150703 | 24 | 19 | 1.6 | 11.3 | 0.00 | 4.50 | 1.32 | 83 | 1015.9 |
| 20260904150603 | 24 | 30 | 3.2 | 11.3 | 0.00 | 4.50 | 1.32 | 83 | 1015.6 |
| 20260904150517 | 24 | 326 | 6.4 | 11.3 | 0.00 | 4.50 | 1.32 | 83 | 1015.8 |
| 20260904150418 | 24 | 305 | 6.4 | 11.3 | 0.00 | 4.50 | 1.32 | 83 | 1015.8 |
| 20260904150403 | 24 | 298 | 6.4 | 11.3 | 0.00 | 4.50 | 1.32 | 83 | 1015.8 |
| 20260904150003 | 23 | 44 | 4.8 | 11.3 | 0.00 | 4.50 | 1.32 | 86 | 1016.0 |
| 20260904145903 | 23 | 359 | 6.4 | 11.3 | 0.00 | 4.50 | 1.32 | 85 | 1015.9 |
| 20260904145803 | 23 | 353 | 6.4 | 11.3 | 0.00 | 4.52 | 1.32 | 84 | 1015.9 |
| 20260904145703 | 23 | 316 | 3.2 | 16.1 | 0.00 | 4.52 | 1.32 | 86 | 1015.8 |
| 20260904145603 | 23 | 303 | 3.2 | 16.1 | 0.00 | 4.52 | 1.32 | 87 | 1015.8 |
| 20260904145503 | 23 | 325 | 4.8 | 16.1 | 0.00 | 4.52 | 1.32 | 86 | 1015.8 |
| 20260904145403 | 23 | 321 | 9.7 | 16.1 | 0.00 | 4.52 | 1.32 | 85 | 1015.8 |
| 20260904145305 | 24 | 305 | 9.7 | 16.1 | 0.00 | 4.52 | 1.32 | 84 | 1015.6 |
| 20260904145203 | 24 | 294 | 4.8 | 14.5 | 0.00 | 4.52 | 1.32 | 84 | 1015.7 |
| 20260904145103 | 24 | 350 | 4.8 | 9.7 | 0.00 | 4.52 | 1.32 | 87 | 1015.7 |
| 20260904145003 | 24 | 44 | 6.4 | 9.7 | 0.00 | 4.52 | 1.32 | 86 | 1015.8 |
| 20260904144903 | 24 | 133 | 6.4 | 9.7 | 0.00 | 4.52 | 1.32 | 85 | 1015.8 |
| 20260904144803 | 23 | 106 | 3.2 | 8.0 | 0.00 | 4.52 | 1.32 | 87 | 1015.8 |
| 20260904144703 | 23 | 36 | 1.6 | 6.4 | 0.00 | 4.52 | 1.32 | 87 | 1015.8 |
| 20260904144603 | 23 | 347 | 3.2 | 6.4 | 0.00 | 4.52 | 1.32 | 89 | 1016.0 |
| 20260904144503 | 23 | 2 | 4.8 | 6.4 | 0.00 | 4.52 | 1.32 | 88 | 1015.7 |
| 20260904144403 | 23 | 51 | 3.2 | 6.4 | 0.00 | 4.52 | 1.32 | 90 | 1015.7 |
| 20260904144316 | 23 | 3 | 1.6 | 6.4 | 0.00 | 4.52 | 1.32 | 90 | 1015.7 |
| 20260904144303 | 22 | 3 | 1.6 | 6.4 | 0.00 | 4.52 | 1.32 | 90 | 1015.7 |
| 20260904144203 | 22 | 13 | 3.2 | 8.0 | 0.00 | 4.52 | 1.32 | 90 | 1015.8 |
| 20260904144003 | 22 | 8 | 4.8 | 8.0 | 0.00 | 4.60 | 1.32 | 89 | 1015.7 |
| 20260904143903 | 22 | 12 | 4.8 | 8.0 | 0.00 | 4.62 | 1.32 | 90 | 1015.7 |
| 20260904143803 | 22 | 347 | 4.8 | 8.0 | 0.00 | 4.67 | 1.32 | 90 | 1015.4 |
| 20260904143703 | 22 | 339 | 3.2 | 6.4 | 0.00 | 4.70 | 1.32 | 90 | 1015.8 |
| 20260904143603 | 22 | 348 | 3.2 | 6.4 | 0.00 | 4.70 | 1.32 | 90 | 1015.8 |
| 20260904143517 | 22 | 324 | 4.8 | 6.4 | 0.00 | 4.70 | 1.32 | 90 | 1015.6 |
| 20260904143503 | 22 | 322 | 4.8 | 6.4 | 0.00 | 4.70 | 1.32 | 90 | 1015.6 |
| 20260904143403 | 22 | 339 | 4.8 | 6.4 | 0.00 | 4.70 | 1.32 | 90 | 1015.4 |
| 20260904143203 | 22 | 245 | 1.6 | 6.4 | 0.00 | 4.70 | 1.32 | 91 | 1015.7 |
| 20260904143103 | 22 | 278 | 1.6 | 6.4 | 0.00 | 4.72 | 1.32 | 90 | 1015.4 |
| 20260904143018 | 22 | 8 | 3.2 | 6.4 | 0.00 | 4.72 | 1.32 | 90 | 1015.4 |
| 20260904143003 | 22 | 22 | 3.2 | 6.4 | 0.00 | 4.72 | 1.32 | 90 | 1015.4 |
| 20260904142903 | 22 | 34 | 3.2 | 6.4 | 0.00 | 4.72 | 1.32 | 90 | 1015.6 |
| 20260904142603 | 22 | 56 | 3.2 | 8.0 | 0.00 | 4.72 | 1.32 | 90 | 1015.4 |
| 20260904142503 | 22 | 100 | 4.8 | 8.0 | 0.00 | 4.72 | 1.32 | 90 | 1015.4 |
| 20260904142403 | 22 | 79 | 6.4 | 8.0 | 0.00 | 4.72 | 1.32 | 90 | 1015.3 |
| 20260904142318 | 22 | 92 | 4.8 | 8.0 | 0.00 | 4.72 | 1.32 | 90 | 1015.6 |
| 20260904142306 | 22 | 94 | 4.8 | 8.0 | 0.00 | 4.72 | 1.32 | 90 | 1015.6 |
| 20260904142203 | 22 | 125 | 3.2 | 4.8 | 0.00 | 4.72 | 1.32 | 90 | 1015.4 |
| 20260904142004 | 22 | 164 | 3.2 | 8.0 | 0.00 | 4.72 | 1.32 | 90 | 1015.4 |
| 20260904141903 | 22 | 69 | 3.2 | 8.0 | 0.00 | 4.72 | 1.32 | 90 | 1015.3 |
| 20260904141803 | 22 | 90 | 4.8 | 8.0 | 0.00 | 4.72 | 1.32 | 90 | 1015.6 |
| 20260904141718 | 22 | 85 | 6.4 | 8.0 | 0.00 | 4.72 | 1.32 | 91 | 1015.6 |
| 20260904141703 | 22 | 96 | 4.8 | 8.0 | 0.00 | 4.72 | 1.32 | 90 | 1015.6 |
| 20260904141603 | 22 | 87 | 4.8 | 8.0 | 0.00 | 4.72 | 1.32 | 90 | 1015.6 |
| 20260904141403 | 22 | 16 | 3.2 | 6.4 | 0.00 | 4.72 | 1.32 | 91 | 1015.4 |
| 20260904141303 | 22 | 24 | 3.2 | 6.4 | 0.00 | 4.72 | 1.32 | 90 | 1015.4 |
| 20260904141203 | 22 | 93 | 3.2 | 4.8 | 0.00 | 4.72 | 1.32 | 91 | 1015.1 |
| 20260904141117 | 22 | 65 | 1.6 | 4.8 | 0.00 | 4.72 | 1.32 | 91 | 1015.3 |
| 20260904141103 | 22 | 45 | 1.6 | 4.8 | 0.00 | 4.72 | 1.32 | 91 | 1015.3 |
| 20260904141003 | 22 | 73 | 1.6 | 4.8 | 0.00 | 4.72 | 1.32 | 90 | 1015.3 |
| 20260904140817 | 22 | 46 | 1.6 | 8.0 | 0.00 | 4.72 | 1.32 | 90 | 1015.3 |
| 20260904140803 | 22 | 52 | 1.6 | 8.0 | 0.00 | 4.72 | 1.32 | 90 | 1015.3 |
| 20260904140718 | 22 | 62 | 3.2 | 8.0 | 0.00 | 4.72 | 1.32 | 90 | 1015.3 |
| 20260904140703 | 22 | 68 | 3.2 | 8.0 | 0.00 | 4.72 | 1.32 | 90 | 1015.3 |
| 20260904140403 | 22 | 88 | 4.8 | 8.0 | 0.00 | 4.72 | 1.32 | 90 | 1015.4 |
| 20260904140318 | 22 | 83 | 4.8 | 8.0 | 0.00 | 4.72 | 1.32 | 90 | 1015.2 |
| 20260904140303 | 22 | 80 | 4.8 | 8.0 | 0.00 | 4.72 | 1.32 | 89 | 1015.2 |
| 20260904140203 | 22 | 71 | 3.2 | 8.0 | 0.00 | 4.72 | 1.32 | 90 | 1015.3 |
| 20260904140003 | 22 | 56 | 6.4 | 8.0 | 0.00 | 4.72 | 1.32 | 90 | 1015.1 |
| 20260904135903 | 22 | 78 | 4.8 | 8.0 | 0.00 | 4.72 | 1.32 | 90 | 1015.0 |
| 20260904135803 | 22 | 75 | 3.2 | 8.0 | 0.00 | 4.72 | 1.32 | 91 | 1015.3 |
| 20260904135703 | 22 | 117 | 3.2 | 8.0 | 0.00 | 4.72 | 1.32 | 92 | 1015.1 |
| 20260904135618 | 22 | 116 | 4.8 | 8.0 | 0.00 | 4.72 | 1.32 | 92 | 1015.2 |
| 20260904135603 | 22 | 118 | 4.8 | 8.0 | 0.00 | 4.72 | 1.32 | 91 | 1015.2 |
| 20260904135503 | 22 | 128 | 4.8 | 8.0 | 0.00 | 4.72 | 1.32 | 91 | 1015.2 |
| 20260904135306 | 22 | 126 | 3.2 | 6.4 | 0.00 | 4.75 | 1.32 | 91 | 1015.4 |
| 20260904135203 | 22 | 104 | 1.6 | 6.4 | 0.00 | 4.80 | 1.32 | 92 | 1015.4 |
| 20260904135103 | 22 | 97 | 1.6 | 8.0 | 0.00 | 4.80 | 1.32 | 91 | 1015.6 |
| 20260904135003 | 22 | 88 | 1.6 | 8.0 | 0.00 | 4.80 | 1.32 | 91 | 1015.4 |
| 20260904134903 | 22 | 99 | 3.2 | 8.0 | 0.00 | 4.83 | 1.32 | 91 | 1015.6 |
| 20260904134803 | 22 | 75 | 6.4 | 8.0 | 0.00 | 4.85 | 1.32 | 91 | 1015.8 |
| 20260904134703 | 22 | 95 | 4.8 | 8.0 | 0.00 | 4.88 | 1.32 | 90 | 1015.3 |
| 20260904134603 | 22 | 93 | 3.2 | 8.0 | 0.00 | 4.88 | 1.32 | 91 | 1015.6 |
| 20260904134503 | 22 | 91 | 3.2 | 8.0 | 0.00 | 4.90 | 1.32 | 91 | 1015.4 |
| 20260904134403 | 22 | 88 | 4.8 | 8.0 | 0.00 | 4.90 | 1.32 | 91 | 1015.4 |